Latitude: N 50° 09' 49" Longitude: W 05° 11' 53" Elevation: 168m ASL

There are 16 visitors online

Adverts

<- Previous Day | Today | Next Day ->

All Data for 15 May 2018

Time
A - D
Temp
A - D
Dew Point
A - D
Humidity
A - D
Pressure
A - D
Wind
A - D
Wind Dir Gust
A - D
Rain Rate
A - D
Rain Total
00:01 10.9 10.0 94 1024.2 6.0 W 6.9 0.0 0.0
00:02 10.8 9.9 94 1024.1 8.3 N 8.3 0.0 0.0
00:04 10.8 9.9 94 1024.1 6.0 NW 8.3 0.0 0.0
00:05 10.8 9.9 94 1024.2 6.0 NW 8.3 0.0 0.0
00:07 10.8 9.9 94 1024.1 4.5 NW 8.3 0.0 0.0
00:08 10.8 9.9 94 1024.0 4.5 NW 8.3 0.0 0.0
00:10 10.8 9.9 94 1024.1 3.8 NW 8.3 0.0 0.0
00:11 10.8 9.9 94 1024.0 5.4 NW 8.3 0.0 0.0
00:13 10.8 9.9 94 1024.0 5.4 W 7.6 0.0 0.0
00:14 10.9 10.0 94 1024.1 5.4 NW 7.6 0.0 0.0
00:15 10.9 10.0 94 1024.1 3.8 NW 7.6 0.0 0.0
00:16 10.9 10.0 94 1024.2 4.5 NW 7.6 0.0 0.0
00:17 10.9 10.0 94 1024.2 5.4 W 5.4 0.0 0.0
00:18 10.9 10.0 94 1024.1 4.5 W 5.4 0.0 0.0
00:19 10.9 10.0 94 1024.2 9.2 NW 9.2 0.0 0.0
00:20 10.9 10.0 94 1024.3 4.5 N 9.2 0.0 0.0
00:22 10.9 10.0 94 1024.2 4.5 NW 9.2 0.0 0.0
00:23 10.9 10.0 94 1024.1 8.3 W 9.2 0.0 0.0
00:24 10.9 10.0 94 1024.0 8.3 W 9.2 0.0 0.0
00:25 10.9 10.0 94 1024.1 6.9 W 9.2 0.0 0.0
00:26 10.9 10.0 94 1024.2 3.8 W 9.2 0.0 0.0
00:27 10.9 10.0 94 1023.9 6.0 W 9.2 0.0 0.0
00:28 10.9 10.0 94 1024.0 6.0 NW 9.2 0.0 0.0
00:29 10.9 10.0 94 1024.1 5.4 W 8.3 0.0 0.0
00:30 10.9 10.0 94 1023.9 6.0 W 8.3 0.0 0.0
00:31 10.9 10.0 94 1024.0 7.6 NW 8.3 0.0 0.0
00:32 10.9 10.1 95 1024.1 6.0 NW 8.3 0.0 0.0
00:33 10.9 10.1 95 1023.9 4.5 NW 8.3 0.0 0.0
00:35 10.9 10.1 95 1023.9 3.1 NW 7.6 0.0 0.0
00:36 10.9 10.1 95 1023.9 5.4 W 7.6 0.0 0.0
00:37 10.9 10.1 95 1023.9 5.4 W 7.6 0.0 0.0
00:38 10.9 10.1 95 1024.0 4.5 W 7.6 0.0 0.0
00:39 10.9 10.1 95 1024.1 3.1 W 7.6 0.0 0.0
00:40 10.9 10.1 95 1024.1 6.9 NW 7.6 0.0 0.0
00:41 10.9 10.1 95 1024.0 6.0 W 7.6 0.0 0.0
00:42 10.9 10.1 95 1024.0 6.9 NW 7.6 0.0 0.0
00:43 10.9 10.1 95 1023.9 8.3 W 8.3 0.0 0.0
00:44 10.9 10.1 95 1024.1 6.0 NW 8.3 0.0 0.0
00:45 10.9 10.1 95 1024.0 6.0 NW 8.3 0.0 0.0
00:46 10.9 10.1 95 1023.9 6.0 NW 8.3 0.0 0.0
00:47 10.9 10.1 95 1023.9 5.4 W 8.3 0.0 0.0
00:48 10.9 10.1 95 1023.8 3.1 W 8.3 0.0 0.0
00:50 10.9 10.1 95 1023.8 4.5 NW 8.3 0.0 0.0
00:51 10.9 10.1 95 1023.9 4.5 N 8.3 0.0 0.0
00:52 10.9 10.1 95 1023.8 4.5 NW 8.3 0.0 0.0
00:53 10.9 10.1 95 1023.8 3.8 NW 8.3 0.0 0.0
00:54 10.9 10.1 95 1024.1 4.5 NW 6.9 0.0 0.0
00:55 11.0 10.2 95 1023.9 7.6 NW 7.6 0.0 0.0
00:57 11.0 10.2 95 1023.8 3.1 NW 7.6 0.0 0.0
00:58 11.0 10.2 95 1023.8 6.0 NW 7.6 0.0 0.0
00:59 11.0 10.2 95 1023.8 6.0 NW 7.6 0.0 0.0
01:00 11.0 10.2 95 1023.8 3.1 NW 7.6 0.0 0.0
01:01 11.0 10.2 95 1023.9 3.1 NW 7.6 0.0 0.0
01:02 11.0 10.2 95 1023.8 3.1 NW 7.6 0.0 0.0
01:03 11.0 10.2 95 1024.0 3.1 NW 7.6 0.0 0.0
01:04 11.0 10.2 95 1023.8 3.1 NW 7.6 0.0 0.0
01:05 11.0 10.2 95 1023.8 4.5 NW 6.9 0.0 0.0
01:06 11.0 10.2 95 1023.8 5.4 NW 6.9 0.0 0.0
01:07 11.0 10.2 95 1023.8 3.8 NW 6.9 0.0 0.0
01:08 11.0 10.2 95 1023.8 3.1 NW 6.9 0.0 0.0
01:10 11.0 10.2 95 1023.8 7.6 NW 7.6 0.0 0.0
01:11 11.0 10.2 95 1023.7 3.8 N 7.6 0.0 0.0
01:12 11.0 10.2 95 1023.8 4.5 NW 7.6 0.0 0.0
01:13 11.0 10.2 95 1023.7 4.5 NW 7.6 0.0 0.0
01:14 11.0 10.2 95 1023.7 3.8 NW 7.6 0.0 0.0
01:15 11.0 10.2 95 1023.7 7.6 NW 7.6 0.0 0.0
01:16 11.0 10.4 96 1023.8 4.5 NW 7.6 0.0 0.0
01:17 11.0 10.2 95 1023.8 4.5 NW 7.6 0.0 0.0
01:18 11.0 10.4 96 1023.7 4.5 W 7.6 0.0 0.0
01:19 11.0 10.4 96 1023.8 3.8 W 7.6 0.0 0.0
01:20 11.0 10.2 95 1023.8 4.5 W 7.6 0.0 0.0
01:21 11.0 10.4 96 1023.8 3.8 W 7.6 0.0 0.0
01:22 11.0 10.4 96 1023.8 4.5 NW 7.6 0.0 0.0
01:24 11.0 10.4 96 1023.8 4.5 NW 7.6 0.0 0.0
01:25 11.0 10.4 96 1023.7 6.9 NW 7.6 0.0 0.0
01:26 11.0 10.2 95 1023.7 5.4 NW 6.9 0.0 0.0
01:27 11.0 10.4 96 1023.8 3.1 NW 6.9 0.0 0.0
01:28 11.0 10.4 96 1023.6 5.4 W 6.9 0.0 0.0
01:29 11.0 10.4 96 1023.7 6.0 NW 6.9 0.0 0.0
01:30 11.0 10.4 96 1023.9 5.4 W 6.9 0.0 0.0
01:31 11.0 10.4 96 1023.8 5.4 W 6.9 0.0 0.0
01:32 11.0 10.4 96 1023.7 7.6 NW 7.6 0.0 0.0
01:33 11.0 10.4 96 1023.8 6.0 W 7.6 0.0 0.0
01:34 11.0 10.4 96 1023.7 6.0 W 7.6 0.0 0.0
01:35 11.0 10.4 96 1023.7 6.0 W 7.6 0.0 0.0
01:37 11.0 10.4 96 1023.7 6.9 W 7.6 0.0 0.0
01:38 11.0 10.4 96 1023.7 7.6 W 7.6 0.0 0.0
01:39 11.0 10.4 96 1023.7 6.0 W 7.6 0.0 0.0
01:40 11.0 10.4 96 1023.7 6.9 NW 7.6 0.0 0.0
01:41 11.0 10.4 96 1023.7 4.5 NW 7.6 0.0 0.0
01:42 11.0 10.4 96 1023.6 3.1 NW 7.6 0.0 0.0
01:43 11.0 10.4 96 1023.6 5.4 NW 7.6 0.0 0.0
01:44 11.0 10.4 96 1023.6 8.3 NW 8.3 0.0 0.0
01:45 11.0 10.4 96 1023.4 6.9 NW 8.3 0.0 0.0
01:46 11.0 10.4 96 1023.7 4.5 NW 8.3 0.0 0.0
01:47 10.9 10.3 96 1023.6 6.0 NW 8.3 0.0 0.0
01:48 11.0 10.4 96 1023.6 2.2 NE 8.3 0.0 0.0
01:49 11.0 10.4 96 1023.7 3.8 NW 8.3 0.0 0.0
01:51 11.0 10.4 96 1023.6 5.4 N 8.3 0.0 0.0
01:52 10.9 10.3 96 1023.5 3.8 NW 8.3 0.0 0.0
01:53 11.0 10.4 96 1023.5 5.4 NW 8.3 0.0 0.0
01:54 10.9 10.3 96 1023.6 5.4 W 8.3 0.0 0.0
01:55 10.9 10.3 96 1023.6 5.4 W 6.9 0.0 0.0
01:56 11.0 10.4 96 1023.8 3.8 NW 6.0 0.0 0.0
01:57 11.0 10.4 96 1023.6 5.4 NW 6.0 0.0 0.0
01:58 11.0 10.4 96 1023.5 4.5 WNW 5.4 0.0 0.0
01:59 11.0 10.4 96 1023.7 4.5 NW 5.4 0.0 0.0
02:00 11.0 10.4 96 1023.5 7.6 NW 7.6 0.0 0.0
02:01 11.0 10.4 96 1023.5 7.6 NW 7.6 0.0 0.0
02:02 11.0 10.4 96 1023.7 7.6 NW 7.6 0.0 0.0
02:03 11.0 10.4 96 1023.6 7.6 NW 7.6 0.0 0.0
02:05 11.0 10.4 96 1023.6 7.6 NW 7.6 0.0 0.0
02:06 11.0 10.4 96 1023.7 3.8 NW 7.6 0.0 0.0
02:07 11.0 10.4 96 1023.4 3.8 NW 7.6 0.0 0.0
02:08 11.0 10.4 96 1023.6 3.8 W 7.6 0.0 0.0
02:09 11.0 10.4 96 1023.7 3.8 NW 7.6 0.0 0.0
02:10 11.0 10.4 96 1023.8 3.1 NW 7.6 0.0 0.0
02:11 11.0 10.4 96 1023.8 4.5 NW 7.6 0.0 0.0
02:12 11.0 10.4 96 1023.8 5.4 NW 7.6 0.0 0.0
02:14 11.0 10.4 96 1023.7 3.1 W 7.6 0.0 0.0
02:15 11.0 10.4 96 1023.7 3.1 W 6.0 0.0 0.0
02:16 11.0 10.4 96 1023.6 5.4 NW 6.0 0.0 0.0
02:17 11.0 10.4 96 1023.7 5.4 W 6.0 0.0 0.0
02:18 11.0 10.4 96 1023.6 3.8 NW 6.0 0.0 0.0
02:19 11.0 10.4 96 1023.7 8.3 NW 8.3 0.0 0.0
02:20 11.0 10.4 96 1023.7 3.1 N 8.3 0.0 0.0
02:21 11.0 10.4 96 1023.7 3.8 W 8.3 0.0 0.0
02:22 11.0 10.4 96 1023.7 3.1 W 8.3 0.0 0.0
02:23 11.0 10.4 96 1023.8 6.0 NW 8.3 0.0 0.0
02:24 11.0 10.4 96 1023.9 5.4 W 8.3 0.0 0.0
02:25 10.9 10.3 96 1023.9 8.3 NW 8.3 0.0 0.0
02:27 11.0 10.4 96 1023.8 6.0 N 8.3 0.0 0.0
02:28 10.9 10.3 96 1023.7 2.2 N 8.3 0.0 0.0
02:29 10.9 10.3 96 1023.8 3.1 N 8.3 0.0 0.0
02:30 10.9 10.3 96 1023.7 3.1 NE 8.3 0.0 0.0
02:31 10.9 10.3 96 1023.8 3.1 NE 8.3 0.0 0.0
02:32 10.9 10.3 96 1023.7 3.1 NE 8.3 0.0 0.0
02:33 10.9 10.3 96 1023.7 3.8 N 8.3 0.0 0.0
02:34 10.9 10.3 96 1023.6 3.8 NW 8.3 0.0 0.0
02:35 10.9 10.3 96 1023.6 3.8 NW 8.3 0.0 0.0
02:36 10.9 10.3 96 1023.7 3.8 NW 6.0 0.0 0.0
02:37 10.9 10.3 96 1023.7 3.8 NW 6.0 0.0 0.0
02:38 10.9 10.3 96 1023.6 4.5 NW 6.0 0.0 0.0
02:39 10.9 10.3 96 1023.7 4.5 NW 6.0 0.0 0.0
02:40 10.9 10.3 96 1023.6 5.4 N 6.0 0.0 0.0
02:41 10.9 10.3 96 1023.5 5.4 N 6.0 0.0 0.0
02:43 10.9 10.3 96 1023.5 4.5 NW 6.0 0.0 0.0
02:44 10.9 10.3 96 1023.6 6.0 NW 6.0 0.0 0.0
02:45 10.9 10.3 96 1023.6 6.9 NW 6.9 0.0 0.0
02:46 10.9 10.3 96 1023.7 4.5 NW 6.9 0.0 0.0
02:47 10.9 10.3 96 1023.6 3.1 NW 6.9 0.0 0.0
02:48 10.9 10.3 96 1023.5 3.8 NW 6.9 0.0 0.0
02:49 10.9 10.3 96 1023.6 2.2 NW 6.9 0.0 0.0
02:50 10.9 10.3 96 1023.6 3.1 NW 6.9 0.0 0.0
02:51 10.9 10.3 96 1023.6 5.4 NW 6.9 0.0 0.0
02:52 10.9 10.3 96 1023.6 6.0 NW 8.3 0.0 0.0
02:53 10.9 10.4 97 1023.6 3.8 NW 8.3 0.0 0.0
02:54 10.9 10.4 97 1023.6 8.3 N 8.3 0.0 0.0
02:55 10.9 10.3 96 1023.5 4.5 NW 8.3 0.0 0.0
02:57 10.9 10.3 96 1023.6 3.8 NW 8.3 0.0 0.0
02:58 10.9 10.3 96 1023.5 3.1 NW 8.3 0.0 0.0
02:59 10.9 10.3 96 1023.5 4.5 NW 8.3 0.0 0.0
03:00 10.9 10.4 97 1023.5 5.4 NW 8.3 0.0 0.0
03:01 10.9 10.4 97 1023.6 5.4 NW 8.3 0.0 0.0
03:02 10.9 10.4 97 1023.5 5.4 NW 8.3 0.0 0.0
03:03 10.9 10.4 97 1023.6 5.4 NW 8.3 0.0 0.0
03:04 10.9 10.4 97 1023.5 5.4 NW 7.6 0.0 0.0
03:05 10.9 10.4 97 1023.6 5.4 NW 7.6 0.0 0.0
03:06 10.9 10.4 97 1023.5 5.4 NW 7.6 0.0 0.0
03:07 10.9 10.4 97 1023.5 3.8 NW 7.6 0.0 0.0
03:08 10.9 10.4 97 1023.5 3.1 NW 5.4 0.0 0.0
03:09 10.9 10.4 97 1023.5 5.4 NW 5.4 0.0 0.0
03:11 10.9 10.4 97 1023.5 4.5 NW 5.4 0.0 0.0
03:12 10.9 10.4 97 1023.6 3.8 NW 5.4 0.0 0.0
03:13 10.9 10.4 97 1023.5 6.9 NW 6.9 0.0 0.0
03:14 10.9 10.4 97 1023.5 6.0 NW 7.6 0.0 0.0
03:15 10.9 10.4 97 1023.5 3.8 NW 7.6 0.0 0.0
03:16 10.9 10.4 97 1023.5 4.5 N 7.6 0.0 0.0
03:17 10.9 10.4 97 1023.5 3.1 NW 7.6 0.0 0.0
03:18 10.8 10.3 97 1023.5 3.1 NW 7.6 0.0 0.0
03:19 10.9 10.4 97 1023.5 6.0 NW 7.6 0.0 0.0
03:20 10.9 10.4 97 1023.4 4.5 NW 7.6 0.0 0.0
03:21 10.9 10.4 97 1023.6 2.2 NW 7.6 0.0 0.0
03:22 10.9 10.4 97 1023.5 4.5 NW 7.6 0.0 0.0
03:23 10.9 10.4 97 1023.6 3.1 NW 7.6 0.0 0.0
03:25 10.9 10.4 97 1023.5 6.0 W 6.0 0.0 0.0
03:26 10.9 10.4 97 1023.6 6.0 NW 6.9 0.0 0.0
03:27 10.8 10.3 97 1023.7 3.8 NW 6.9 0.0 0.0
03:28 10.8 10.3 97 1023.6 3.1 NW 6.9 0.0 0.0
03:29 10.8 10.3 97 1023.6 5.4 NW 6.9 0.0 0.0
03:30 10.8 10.3 97 1023.5 7.6 NW 7.6 0.0 0.0
03:31 10.8 10.3 97 1023.5 3.1 NW 7.6 0.0 0.0
03:32 10.8 10.3 97 1023.6 4.5 N 7.6 0.0 0.0
03:33 10.8 10.3 97 1023.7 7.6 NW 7.6 0.0 0.0
03:34 10.8 10.3 97 1023.6 6.0 NW 7.6 0.0 0.0
03:35 10.8 10.3 97 1023.6 3.8 NW 7.6 0.0 0.0
03:36 10.8 10.3 97 1023.5 5.4 N 7.6 0.0 0.0
03:38 10.8 10.3 97 1023.5 4.5 N 7.6 0.0 0.0
03:39 10.8 10.3 97 1023.5 3.1 N 7.6 0.0 0.0
03:40 10.8 10.3 97 1023.8 4.5 NW 7.6 0.0 0.0
03:41 10.8 10.3 97 1023.7 6.0 NW 7.6 0.8 0.1
03:42 10.8 10.3 97 1023.7 6.0 NW 7.6 0.8 0.1
03:43 10.7 10.2 97 1023.6 3.1 NW 7.6 0.8 0.1
03:44 10.7 10.2 97 1023.8 3.8 NW 6.9 0.8 0.1
03:45 10.7 10.2 97 1023.7 7.6 NW 7.6 0.8 0.1
03:46 10.7 10.2 97 1023.6 4.5 NW 7.6 0.0 0.1
03:47 10.7 10.2 97 1023.5 6.0 NW 7.6 0.0 0.1
03:48 10.7 10.2 97 1023.4 6.0 NW 7.6 0.0 0.1
03:49 10.7 10.2 97 1023.6 2.2 NW 7.6 0.0 0.1
03:50 10.7 10.2 97 1023.4 4.5 W 7.6 0.0 0.1
03:52 10.7 10.2 97 1023.5 3.8 NW 7.6 0.0 0.1
03:53 10.7 10.2 97 1023.7 3.1 NW 7.6 0.0 0.1
03:54 10.7 10.2 97 1023.4 3.8 NW 9.2 0.0 0.1
03:55 10.7 10.2 97 1023.5 4.5 NW 9.2 0.0 0.1
03:56 10.7 10.2 97 1023.6 7.6 NW 9.2 0.0 0.1
03:57 10.7 10.2 97 1023.4 5.4 N 9.2 0.0 0.1
03:58 10.7 10.2 97 1023.4 3.8 W 9.2 0.0 0.1
03:59 10.7 10.2 97 1023.5 4.5 NW 9.2 0.0 0.1
04:00 10.7 10.2 97 1023.4 4.5 NW 9.2 0.0 0.1
04:01 10.7 10.2 97 1023.5 4.5 NW 9.2 0.0 0.1
04:02 10.7 10.2 97 1023.4 4.5 NW 9.2 0.0 0.1
04:04 10.7 10.2 97 1023.5 4.5 NW 7.6 0.0 0.1
04:05 10.7 10.2 97 1023.4 4.5 NW 7.6 0.0 0.1
04:06 10.7 10.2 97 1023.4 8.3 NW 8.3 0.0 0.1
04:07 10.7 10.2 97 1023.5 4.5 N 8.3 0.0 0.1
04:08 10.7 10.4 98 1023.4 3.8 N 8.3 0.0 0.1
04:10 10.7 10.4 98 1023.3 2.2 N 8.3 0.0 0.1
04:11 10.7 10.2 97 1023.4 3.8 N 8.3 0.0 0.1
04:12 10.7 10.4 98 1023.6 3.8 N 8.3 0.0 0.1
04:13 10.7 10.4 98 1023.4 6.0 N 8.3 0.0 0.1
04:14 10.7 10.4 98 1023.4 6.9 N 8.3 0.0 0.1
04:15 10.5 10.2 98 1023.6 5.4 N 8.3 0.0 0.1
04:16 10.7 10.4 98 1023.3 4.5 N 6.9 0.0 0.1
04:18 10.7 10.4 98 1023.5 4.5 N 6.9 0.0 0.1
04:19 10.6 10.3 98 1023.3 5.4 N 6.9 0.0 0.1
04:20 10.6 10.3 98 1023.4 3.8 N 6.9 0.0 0.1
04:21 10.6 10.3 98 1023.3 2.2 N 6.9 0.0 0.1
04:22 10.6 10.3 98 1023.4 5.4 N 6.9 0.0 0.1
04:23 10.6 10.3 98 1023.4 5.4 W 6.9 0.0 0.1
04:24 10.7 10.4 98 1023.3 6.0 W 6.0 0.0 0.1
04:25 10.7 10.4 98 1023.4 3.8 WSW 6.0 0.0 0.1
04:26 10.6 10.3 98 1023.3 3.8 WSW 6.0 0.0 0.1
04:27 10.6 10.3 98 1023.3 2.2 NW 6.0 0.0 0.1
04:28 10.6 10.3 98 1023.2 2.2 NW 6.0 0.0 0.1
04:29 10.6 10.3 98 1023.3 2.2 NW 6.0 0.0 0.1
04:31 10.6 10.3 98 1023.3 3.8 NW 6.0 0.0 0.1
04:32 10.6 10.3 98 1023.4 3.8 N 6.0 0.0 0.1
04:33 10.6 10.3 98 1023.3 3.8 N 6.0 0.0 0.1
04:34 10.7 10.4 98 1023.3 6.0 NW 7.6 0.0 0.1
04:35 10.7 10.4 98 1023.4 6.9 N 7.6 0.0 0.1
04:36 10.7 10.4 98 1023.3 4.5 NW 7.6 0.0 0.1
04:37 10.7 10.4 98 1023.2 5.4 NW 7.6 0.0 0.1
04:38 10.6 10.3 98 1023.3 3.8 NW 7.6 0.0 0.1
04:39 10.7 10.4 98 1023.3 6.0 NW 7.6 0.0 0.1
04:40 10.6 10.3 98 1023.2 7.6 NW 7.6 0.0 0.1
04:42 10.6 10.3 98 1023.2 5.4 N 7.6 0.0 0.1
04:43 10.7 10.4 98 1023.2 4.5 N 7.6 0.0 0.1
04:44 10.7 10.4 98 1023.0 4.5 NW 7.6 0.0 0.1
04:45 10.6 10.3 98 1023.2 9.2 NW 9.2 0.0 0.1
04:46 10.6 10.3 98 1023.2 6.9 W 9.2 0.0 0.1
04:47 10.6 10.3 98 1023.3 6.0 NW 9.2 0.0 0.1
04:48 10.6 10.3 98 1023.2 6.9 NW 9.2 0.0 0.1
04:49 10.6 10.3 98 1023.1 6.9 W 9.2 0.0 0.1
04:50 10.6 10.3 98 1023.1 5.4 NW 9.2 0.0 0.1
04:51 10.6 10.3 98 1023.1 6.9 NW 9.2 0.0 0.1
04:52 10.6 10.3 98 1023.1 6.0 NW 9.2 0.0 0.1
04:53 10.6 10.3 98 1023.0 8.3 NW 9.2 0.0 0.1
04:54 10.6 10.3 98 1023.1 6.0 NW 8.3 0.0 0.1
04:55 10.6 10.3 98 1023.2 5.4 NW 8.3 0.0 0.1
04:56 10.7 10.4 98 1023.2 5.4 NW 8.3 0.0 0.1
04:57 10.7 10.4 98 1023.2 5.4 NW 8.3 0.0 0.1
04:58 10.6 10.3 98 1023.1 7.6 NW 8.3 0.0 0.1
04:59 10.6 10.3 98 1023.2 6.9 NW 8.3 0.0 0.1
05:00 10.6 10.3 98 1023.1 6.9 NW 8.3 0.0 0.1
05:01 10.6 10.3 98 1023.3 5.4 NW 8.3 0.0 0.1
05:03 10.6 10.3 98 1023.2 3.8 NW 8.3 0.0 0.1
05:04 10.6 10.3 98 1023.2 6.0 W 8.3 0.0 0.1
05:05 10.6 10.3 98 1023.3 6.0 W 8.3 0.0 0.1
05:06 10.6 10.3 98 1023.3 6.0 NW 7.6 0.0 0.1
05:07 10.6 10.3 98 1023.2 1.6 NW 7.6 0.0 0.1
05:08 10.6 10.3 98 1023.2 3.1 NW 7.6 0.0 0.1
05:09 10.7 10.4 98 1023.3 6.0 NW 6.9 0.0 0.1
05:10 10.7 10.4 98 1023.2 5.4 W 6.9 0.0 0.1
05:11 10.7 10.4 98 1023.3 5.4 W 6.0 0.0 0.1
05:12 10.6 10.3 98 1023.3 4.5 NW 6.0 0.0 0.1
05:13 10.6 10.3 98 1023.3 3.8 NW 6.0 0.0 0.1
05:14 10.6 10.3 98 1023.2 2.2 NW 6.0 0.0 0.1
05:15 10.6 10.3 98 1023.1 4.5 NW 6.0 0.0 0.1
05:16 10.7 10.4 98 1023.3 6.9 N 6.9 0.0 0.1
05:17 10.6 10.3 98 1023.3 5.4 NW 6.9 0.0 0.1
05:18 10.5 10.2 98 1023.3 3.1 NW 6.9 0.0 0.1
05:19 10.5 10.2 98 1023.3 3.8 NW 6.9 0.0 0.1
05:20 10.5 10.2 98 1023.4 6.0 NW 6.9 0.0 0.1
05:21 10.5 10.2 98 1023.2 5.4 W 6.9 0.0 0.1
05:22 10.5 10.2 98 1023.4 7.6 W 7.6 0.0 0.1
05:23 10.5 10.2 98 1023.3 5.4 W 7.6 0.0 0.1
05:24 10.5 10.2 98 1023.2 6.9 W 7.6 0.0 0.1
05:25 10.5 10.2 98 1023.3 5.4 W 7.6 0.0 0.1
05:26 10.5 10.2 98 1023.4 4.5 W 7.6 0.0 0.1
05:27 10.5 10.2 98 1023.3 4.5 W 7.6 0.0 0.1
05:28 10.5 10.2 98 1023.3 3.1 W 7.6 0.0 0.1
05:29 10.5 10.2 98 1023.3 5.4 W 7.6 0.0 0.1
05:30 10.5 10.2 98 1023.4 5.4 W 7.6 0.0 0.1
05:31 10.5 10.2 98 1023.3 6.9 NW 7.6 0.0 0.1
05:32 10.5 10.2 98 1023.3 6.0 NW 6.9 0.0 0.1
05:33 10.5 10.2 98 1023.4 4.5 NW 6.9 0.0 0.1
05:34 10.5 10.2 98 1023.4 4.5 NW 6.9 0.0 0.1
05:35 10.5 10.2 98 1023.3 5.4 NW 6.9 0.0 0.1
05:36 10.5 10.2 98 1023.4 5.4 NW 6.9 0.0 0.1
05:37 10.5 10.4 99 1023.3 5.4 W 6.9 0.0 0.1
05:38 10.5 10.2 98 1023.5 8.3 NW 8.3 0.0 0.1
05:39 10.5 10.2 98 1023.4 8.3 W 8.3 0.0 0.1
05:40 10.4 10.1 98 1023.4 6.0 W 8.3 0.0 0.1
05:41 10.4 10.3 99 1023.3 8.3 W 8.3 0.0 0.1
05:42 10.5 10.2 98 1023.4 9.2 W 9.2 0.0 0.1
05:43 10.4 10.1 98 1023.4 7.6 W 9.2 0.0 0.1
05:44 10.4 10.3 99 1023.3 8.3 W 9.2 0.0 0.1
05:45 10.4 10.1 98 1023.3 3.8 W 9.2 0.0 0.1
05:47 10.4 10.3 99 1023.3 4.5 W 9.2 0.0 0.1
05:48 10.4 10.3 99 1023.3 7.6 W 9.2 0.0 0.1
05:49 10.4 10.3 99 1023.3 7.6 W 9.2 0.0 0.1
05:50 10.4 10.3 99 1023.3 6.9 W 9.2 0.0 0.1
05:51 10.4 10.3 99 1023.4 6.0 NW 9.2 0.0 0.1
05:52 10.4 10.3 99 1023.2 5.4 W 9.2 0.0 0.1
05:53 10.4 10.3 99 1023.2 4.5 NW 8.3 0.0 0.1
05:54 10.5 10.4 99 1023.3 8.3 W 8.3 0.0 0.1
05:55 10.4 10.3 99 1023.3 7.6 W 8.3 0.0 0.1
05:56 10.4 10.3 99 1023.3 5.4 W 8.3 0.0 0.1
05:57 10.4 10.3 99 1023.4 5.4 W 8.3 0.0 0.1
05:58 10.4 10.3 99 1023.5 6.9 W 8.3 0.0 0.1
05:59 10.4 10.3 99 1023.3 5.4 W 8.3 0.0 0.1
06:00 10.4 10.3 99 1023.3 7.6 NW 8.3 0.0 0.1
06:01 10.4 10.3 99 1023.3 6.0 N 8.3 0.0 0.1
06:02 10.4 10.3 99 1023.3 6.0 NW 8.3 0.0 0.1
06:03 10.4 10.3 99 1023.4 4.5 NW 8.3 0.0 0.1
06:04 10.4 10.3 99 1023.4 4.5 NW 8.3 0.0 0.1
06:05 10.4 10.3 99 1023.4 6.0 W 7.6 0.0 0.1
06:06 10.4 10.3 99 1023.5 6.0 NW 7.6 0.0 0.1
06:07 10.4 10.3 99 1023.3 8.3 WSW 8.3 0.0 0.1
06:08 10.4 10.3 99 1023.3 9.2 W 9.2 0.0 0.1
06:10 10.4 10.3 99 1023.4 5.4 NW 9.2 0.0 0.1
06:11 10.4 10.3 99 1023.5 6.0 N 9.2 0.0 0.1
06:12 10.4 10.3 99 1023.4 6.9 W 9.2 0.0 0.1
06:14 10.4 10.3 99 1023.4 7.6 W 9.2 0.0 0.1
06:15 10.4 10.3 99 1023.3 6.0 NW 9.2 0.0 0.1
06:16 10.4 10.3 99 1023.4 6.9 NW 9.2 0.0 0.1
06:17 10.4 10.3 99 1023.3 5.4 W 9.2 0.0 0.1
06:18 10.4 10.3 99 1023.3 4.5 N 9.2 0.0 0.1
06:19 10.4 10.3 99 1023.3 2.2 N 9.2 0.0 0.1
06:20 10.4 10.3 99 1023.6 3.1 NW 9.2 0.0 0.1
06:21 10.4 10.3 99 1023.4 5.4 NW 9.2 0.0 0.1
06:22 10.4 10.3 99 1023.4 5.4 NW 7.6 0.0 0.1
06:23 10.4 10.3 99 1023.3 8.3 NW 8.3 0.0 0.1
06:24 10.4 10.3 99 1023.4 5.4 NW 8.3 0.0 0.1
06:25 10.4 10.3 99 1023.4 5.4 W 8.3 0.0 0.1
06:26 10.4 10.3 99 1023.4 6.0 W 8.3 0.0 0.1
06:27 10.4 10.3 99 1023.3 9.2 W 9.2 0.0 0.1
06:28 10.4 10.3 99 1023.3 5.4 N 9.2 0.0 0.1
06:29 10.4 10.3 99 1023.3 9.2 NW 9.2 0.0 0.1
06:30 10.4 10.3 99 1023.3 6.0 W 9.2 0.0 0.1
06:31 10.4 10.3 99 1023.5 5.4 NW 9.2 0.0 0.1
06:32 10.4 10.3 99 1023.3 4.5 NW 9.2 0.0 0.1
06:33 10.4 10.3 99 1023.4 5.4 W 9.2 0.0 0.1
06:34 10.4 10.3 99 1023.5 6.9 NW 9.2 0.0 0.1
06:35 10.4 10.3 99 1023.3 7.6 NW 9.2 0.0 0.1
06:36 10.4 10.3 99 1023.5 7.6 NW 9.2 0.0 0.1
06:37 10.4 10.3 99 1023.5 9.8 NW 9.8 0.0 0.1
06:38 10.4 10.3 99 1023.4 4.5 NW 9.8 0.0 0.1
06:39 10.4 10.3 99 1023.4 4.5 WSW 9.8 0.0 0.1
06:41 10.4 10.3 99 1023.3 6.0 W 9.8 0.0 0.1
06:42 10.5 10.4 99 1023.4 5.4 W 9.8 0.0 0.1
06:43 10.4 10.3 99 1023.4 6.0 W 9.8 0.0 0.1
06:44 10.4 10.3 99 1023.4 5.4 NW 9.8 0.0 0.1
06:45 10.5 10.4 99 1023.5 6.0 NW 9.8 0.0 0.1
06:46 10.5 10.4 99 1023.5 5.4 NW 9.8 0.0 0.1
06:47 10.5 10.4 99 1023.5 3.1 NW 9.8 0.0 0.1
06:48 10.5 10.4 99 1023.6 6.0 NW 7.6 0.0 0.1
06:49 10.5 10.4 99 1023.5 5.4 NW 7.6 0.0 0.1
06:50 10.5 10.4 99 1023.4 4.5 NW 7.6 0.0 0.1
06:51 10.5 10.4 99 1023.6 5.4 W 6.0 0.0 0.1
06:52 10.5 10.4 99 1023.4 3.8 W 6.0 0.0 0.1
06:53 10.5 10.4 99 1023.5 6.0 NE 6.0 0.0 0.1
06:54 10.6 10.5 99 1023.4 9.8 NW 9.8 0.0 0.1
06:55 10.5 10.4 99 1023.5 10.7 NW 10.7 0.0 0.1
06:56 10.6 10.5 99 1023.5 6.9 NW 10.7 0.0 0.1
06:57 10.6 10.5 99 1023.2 2.2 NW 10.7 0.0 0.1
06:58 10.6 10.5 99 1023.5 6.0 NW 10.7 0.0 0.1
06:59 10.6 10.5 99 1023.4 8.3 NW 10.7 0.0 0.1
07:00 10.6 10.5 99 1023.5 6.9 NW 10.7 0.0 0.1
07:01 10.6 10.5 99 1023.4 9.2 NW 10.7 0.0 0.1
07:02 10.6 10.5 99 1023.4 9.8 N 10.7 0.0 0.1
07:03 10.6 10.5 99 1023.4 6.9 NW 10.7 0.0 0.1
07:04 10.6 10.5 99 1023.5 7.6 NW 10.7 0.0 0.1
07:05 10.6 10.5 99 1023.4 7.6 NW 9.8 0.0 0.1
07:06 10.5 10.4 99 1023.4 7.6 NW 9.8 0.0 0.1
07:08 10.6 10.5 99 1023.4 9.2 NW 9.8 0.0 0.1
07:09 10.6 10.5 99 1023.4 6.0 NW 9.8 0.0 0.1
07:10 10.6 10.5 99 1023.5 6.9 W 9.8 0.0 0.1
07:11 10.6 10.5 99 1023.4 6.0 W 9.8 0.0 0.1
07:12 10.5 10.4 99 1023.4 9.2 W 9.8 0.0 0.1
07:13 10.6 10.5 99 1023.5 6.0 NW 9.2 0.0 0.1
07:14 10.6 10.5 99 1023.5 4.5 NW 9.2 0.0 0.1
07:15 10.6 10.5 99 1023.3 5.4 NW 9.2 0.0 0.1
07:16 10.6 10.5 99 1023.4 3.1 NW 9.2 0.0 0.1
07:17 10.7 10.6 99 1023.6 6.9 N 9.2 0.0 0.1
07:18 10.6 10.5 99 1023.3 7.6 W 9.2 0.0 0.1
07:19 10.5 10.4 99 1023.4 8.3 NW 9.2 0.0 0.1
07:20 10.6 10.5 99 1023.4 6.0 NW 9.2 0.0 0.1
07:21 10.6 10.5 99 1023.5 6.0 W 9.2 0.0 0.1
07:23 10.6 10.5 99 1023.4 7.6 NW 8.3 0.0 0.1
07:24 10.6 10.5 99 1023.3 6.9 N 8.3 0.0 0.1
07:25 10.6 10.5 99 1023.3 6.0 NW 8.3 0.0 0.1
07:26 10.6 10.5 99 1023.3 9.8 NW 9.8 0.0 0.1
07:27 10.6 10.5 99 1023.4 4.5 W 9.8 0.0 0.1
07:28 10.6 10.5 99 1023.3 6.0 NW 9.8 0.0 0.1
07:29 10.6 10.5 99 1023.4 6.9 NW 9.8 0.0 0.1
07:30 10.6 10.5 99 1023.3 9.8 NW 9.8 0.0 0.1
07:31 10.6 10.5 99 1023.5 9.2 N 9.8 0.0 0.1
07:32 10.6 10.5 99 1023.4 9.2 NW 11.4 0.0 0.1
07:33 10.6 10.5 99 1023.4 6.9 N 11.4 0.0 0.1
07:34 10.6 10.5 99 1023.4 6.9 N 11.4 0.0 0.1
07:35 10.7 10.6 99 1023.5 4.5 NW 11.4 0.0 0.1
07:36 10.6 10.5 99 1023.5 9.2 NW 11.4 0.0 0.1
07:37 10.6 10.5 99 1023.5 4.5 WSW 11.4 0.0 0.1
07:38 10.6 10.5 99 1023.4 3.8 N 11.4 0.0 0.1
07:39 10.6 10.5 99 1023.4 9.2 NW 11.4 0.0 0.1
07:40 10.6 10.5 99 1023.6 4.5 NW 11.4 0.0 0.1
07:41 10.6 10.5 99 1023.5 9.2 NW 11.4 0.0 0.1
07:42 10.7 10.6 99 1023.5 6.9 NW 11.4 0.0 0.1
07:43 10.6 10.5 99 1023.3 4.5 NW 11.4 0.0 0.1
07:44 10.7 10.6 99 1023.3 3.8 NW 11.4 0.0 0.1
07:45 10.7 10.6 99 1023.6 5.4 NW 11.4 0.0 0.1
07:46 10.7 10.6 99 1023.3 6.0 NW 11.4 0.0 0.1
07:48 10.7 10.6 99 1023.5 6.9 NW 11.4 0.0 0.1
07:49 10.7 10.6 99 1023.4 7.6 N 11.4 0.0 0.1
07:50 10.7 10.6 99 1023.4 6.0 N 11.4 0.0 0.1
07:51 10.7 10.6 99 1023.4 4.5 N 11.4 0.0 0.1
07:52 10.7 10.6 99 1023.4 8.3 N 9.2 0.0 0.1
07:53 10.7 10.6 99 1023.5 9.8 NW 9.8 0.0 0.1
07:54 10.7 10.6 99 1023.5 7.6 NW 9.8 0.0 0.1
07:55 10.7 10.6 99 1023.6 1.6 NW 9.8 0.0 0.1
07:56 10.7 10.6 99 1023.5 7.6 NW 9.8 0.0 0.1
07:57 10.8 10.7 99 1023.5 6.0 NW 9.8 0.0 0.1
07:58 10.8 10.7 99 1023.5 8.3 NW 9.8 0.0 0.1
07:59 10.8 10.7 99 1023.5 4.5 NW 9.8 0.0 0.1
08:00 10.8 10.7 99 1023.6 6.0 NW 9.8 0.0 0.1
08:01 10.8 10.7 99 1023.6 6.9 NW 9.8 0.0 0.1
08:02 10.8 10.7 99 1023.6 5.4 NW 9.8 0.0 0.1
08:04 10.8 10.7 99 1023.6 7.6 NW 8.3 0.0 0.1
08:05 10.8 10.7 99 1023.4 6.9 NW 8.3 0.0 0.1
08:06 10.8 10.7 99 1023.5 7.6 W 8.3 0.0 0.1
08:07 10.9 10.8 99 1023.4 5.4 W 8.3 0.0 0.1
08:08 10.9 10.8 99 1023.5 5.4 NW 8.3 0.0 0.1
08:09 10.9 10.8 99 1023.6 6.9 NW 7.6 0.0 0.1
08:10 10.9 10.8 99 1023.7 5.4 NW 7.6 0.0 0.1
08:12 10.9 10.8 99 1023.6 7.6 NW 7.6 0.0 0.1
08:13 10.9 10.8 99 1023.6 8.3 W 8.3 0.0 0.1
08:14 11.0 10.9 99 1023.6 10.7 NW 10.7 0.0 0.1
08:16 11.0 10.9 99 1023.5 6.0 NW 10.7 0.0 0.1
08:17 11.0 10.9 99 1023.6 6.0 N 10.7 0.0 0.1
08:18 11.0 10.9 99 1023.5 4.5 NW 10.7 0.0 0.1
08:19 11.0 10.9 99 1023.6 3.8 NW 10.7 0.0 0.1
08:20 11.0 10.9 99 1023.6 4.5 NW 10.7 0.0 0.1
08:21 11.0 10.9 99 1023.6 7.6 N 10.7 0.0 0.1
08:22 11.0 10.9 99 1023.6 6.9 NW 10.7 0.0 0.1
08:23 11.0 10.9 99 1023.6 9.2 NW 10.7 0.0 0.1
08:24 11.0 10.9 99 1023.6 6.0 NW 10.7 0.0 0.1
08:25 11.1 11.0 99 1023.6 9.8 NW 9.8 0.0 0.1
08:26 11.0 10.9 99 1023.6 5.4 N 9.8 0.0 0.1
08:28 11.1 11.0 99 1023.5 6.0 W 9.8 0.0 0.1
08:29 11.1 11.0 99 1023.5 7.6 NW 9.8 0.0 0.1
08:30 11.1 11.0 99 1023.5 6.9 N 9.8 0.0 0.1
08:31 11.1 11.0 99 1023.6 9.2 N 9.8 0.0 0.1
08:32 11.1 11.0 99 1023.5 6.9 N 9.8 0.0 0.1
08:33 11.1 11.0 99 1023.6 7.6 NW 9.8 0.0 0.1
08:34 11.1 11.0 99 1023.5 9.2 N 9.8 0.0 0.1
08:36 11.1 11.0 99 1023.4 9.8 NW 9.8 0.0 0.1
08:37 11.1 11.0 99 1023.6 6.0 N 9.8 0.0 0.1
08:38 11.1 11.0 99 1023.4 5.4 NW 9.8 0.0 0.1
08:39 11.1 11.0 99 1023.6 6.9 NW 9.8 0.0 0.1
08:40 11.2 11.1 99 1023.6 9.2 NW 9.8 0.0 0.1
08:41 11.2 11.1 99 1023.6 6.9 NW 9.8 0.0 0.1
08:42 11.2 11.1 99 1023.5 3.1 NW 9.8 0.0 0.1
08:43 11.2 11.1 99 1023.5 8.3 NW 9.8 0.0 0.1
08:44 11.2 11.1 99 1023.6 6.0 NW 9.8 0.0 0.1
08:45 11.2 11.1 99 1023.4 4.5 NW 9.8 0.0 0.1
08:46 11.2 11.1 99 1023.5 6.0 NW 9.2 0.0 0.1
08:47 11.2 11.1 99 1023.6 6.0 NW 9.2 0.0 0.1
08:48 11.2 11.1 99 1023.6 6.0 N 9.2 0.0 0.1
08:49 11.3 11.2 99 1023.6 9.2 NW 9.2 0.0 0.1
08:50 11.3 11.2 99 1023.6 6.9 N 9.8 0.0 0.1
08:51 11.3 11.2 99 1023.5 8.3 W 9.8 0.0 0.1
08:52 11.3 11.2 99 1023.6 9.2 NW 9.8 0.0 0.1
08:53 11.3 11.2 99 1023.6 8.3 WSW 9.8 0.0 0.1
08:54 11.3 11.2 99 1023.7 4.5 NW 9.8 0.0 0.1
08:56 11.3 11.2 99 1023.6 7.6 NW 9.8 0.0 0.1
08:57 11.3 11.2 99 1023.6 3.8 NW 9.8 0.0 0.1
08:58 11.3 11.2 99 1023.8 6.0 NW 9.8 0.0 0.1
08:59 11.3 11.2 99 1023.6 6.0 N 9.8 0.0 0.1
09:00 11.3 11.2 99 1023.6 9.2 NW 9.2 0.0 0.1
09:01 11.3 11.2 99 1023.5 9.2 NW 9.2 0.0 0.1
09:02 11.4 11.3 99 1023.7 7.6 NW 9.2 0.0 0.1
09:03 11.4 11.3 99 1023.6 9.8 NW 9.8 0.0 0.1
09:04 11.4 11.3 99 1023.6 6.0 NW 9.8 0.0 0.1
09:05 11.4 11.3 99 1023.6 8.3 NW 9.8 0.0 0.1
09:06 11.4 11.3 99 1023.7 7.6 NW 9.8 0.0 0.1
09:07 11.4 11.3 99 1023.8 3.1 NW 9.8 0.0 0.1
09:08 11.4 11.3 99 1023.6 3.8 NW 9.8 0.0 0.1
09:09 11.4 11.3 99 1023.6 6.9 NW 9.8 0.0 0.1
09:10 11.4 11.3 99 1023.9 8.3 NW 9.8 0.0 0.1
09:11 11.4 11.3 99 1023.8 3.1 NW 9.8 0.0 0.1
09:12 11.4 11.3 99 1023.7 6.9 NW 9.8 0.0 0.1
09:13 11.4 11.3 99 1023.7 8.3 NW 8.3 0.0 0.1
09:14 11.5 11.4 99 1023.7 5.4 NW 8.3 0.0 0.1
09:15 11.5 11.4 99 1023.8 8.3 NW 8.3 0.0 0.1
09:16 11.5 11.4 99 1023.7 5.4 NW 8.3 0.0 0.1
09:18 11.5 11.4 99 1023.6 4.5 NW 8.3 0.0 0.1
09:19 11.5 11.4 99 1023.6 3.1 NW 8.3 0.0 0.1
09:20 11.6 11.5 99 1023.6 6.9 NW 8.3 0.0 0.1
09:21 11.6 11.5 99 1023.7 6.9 NW 8.3 0.0 0.1
09:22 11.6 11.5 99 1023.8 7.6 NW 8.3 0.0 0.1
09:23 11.6 11.5 99 1023.6 4.5 NW 8.3 0.0 0.1
09:24 11.7 11.6 99 1023.8 4.5 NW 8.3 0.0 0.1
09:25 11.6 11.5 99 1023.7 5.4 NW 8.3 0.0 0.1
09:26 11.7 11.6 99 1023.6 8.3 NW 8.3 0.0 0.1
09:27 11.7 11.6 99 1023.6 6.9 NW 8.3 0.0 0.1
09:28 11.7 11.6 99 1023.6 6.9 NW 8.3 0.0 0.1
09:29 11.7 11.6 99 1023.7 6.9 NW 8.3 0.0 0.1
09:30 11.7 11.6 99 1023.6 7.6 NW 8.3 0.0 0.1
09:31 11.7 11.6 99 1023.6 7.6 N 8.3 0.0 0.1
09:32 11.7 11.6 99 1023.5 6.9 NW 8.3 0.0 0.1
09:33 11.7 11.6 99 1023.5 3.8 NW 8.3 0.0 0.1
09:34 11.7 11.6 99 1023.6 8.3 NW 8.3 0.0 0.1
09:35 11.7 11.6 99 1023.6 8.3 NW 8.3 0.0 0.1
09:36 11.7 11.6 99 1023.5 7.6 NW 8.3 0.0 0.1
09:37 11.8 11.7 99 1023.5 6.0 NW 8.3 0.0 0.1
09:39 11.8 11.7 99 1023.6 6.0 NW 8.3 0.0 0.1
09:40 11.8 11.7 99 1023.6 6.9 NW 8.3 0.0 0.1
09:41 11.9 11.8 99 1023.6 6.9 N 8.3 0.0 0.1
09:42 11.9 11.8 99 1023.7 6.0 NW 8.3 0.0 0.1
09:43 11.9 11.8 99 1023.5 6.0 NW 8.3 0.0 0.1
09:44 12.0 11.9 99 1023.7 4.5 NW 8.3 0.0 0.1
09:45 12.0 11.9 99 1023.8 5.4 NW 8.3 0.0 0.1
09:46 12.0 11.9 99 1023.7 5.4 NW 8.3 0.0 0.1
09:47 12.0 11.9 99 1023.6 5.4 NW 8.3 0.0 0.1
09:48 12.0 11.9 99 1023.6 7.6 N 8.3 0.0 0.1
09:49 12.1 12.0 99 1023.7 6.0 NW 8.3 0.0 0.1
09:50 12.1 12.0 99 1023.7 4.5 N 7.6 0.0 0.1
09:51 12.1 12.0 99 1023.8 5.4 E 7.6 0.0 0.1
09:52 12.1 12.0 99 1023.6 7.6 NW 7.6 0.0 0.1
09:53 12.1 12.0 99 1023.8 9.2 NW 9.2 0.0 0.1
09:54 12.2 12.1 99 1023.7 6.0 NW 9.2 0.0 0.1
09:55 12.1 12.0 99 1023.6 9.8 NW 9.8 0.0 0.1
09:56 12.1 12.0 99 1023.5 8.3 NW 9.8 0.0 0.1
09:57 12.1 12.0 99 1023.8 7.6 N 9.8 0.0 0.1
09:59 12.1 12.0 99 1023.7 9.2 NW 9.8 0.0 0.1
10:00 12.1 12.0 99 1023.6 7.6 NW 9.8 0.0 0.1
10:01 12.1 12.0 99 1023.6 7.6 NW 9.8 0.0 0.1
10:02 12.1 12.0 99 1023.7 7.6 NW 9.8 0.0 0.1
10:03 12.1 12.0 99 1023.6 9.2 NW 9.8 0.0 0.1
10:04 12.0 11.9 99 1023.6 7.6 W 9.8 0.0 0.1
10:05 12.0 11.9 99 1023.7 6.9 NW 9.8 0.0 0.1
10:06 12.0 11.9 99 1023.7 7.6 NW 9.8 0.0 0.1
10:07 12.0 11.9 99 1023.8 6.9 NW 9.8 0.0 0.1
10:08 12.1 12.0 99 1023.6 10.7 N 11.4 0.0 0.1
10:09 12.1 12.0 99 1023.7 6.9 NW 11.4 0.0 0.1
10:11 12.1 12.0 99 1023.7 9.2 NW 11.4 0.0 0.1
10:12 12.0 11.9 99 1023.8 9.8 NW 11.4 0.0 0.1
10:14 12.0 11.9 99 1023.8 9.8 NW 12.1 0.0 0.1
10:15 12.0 11.9 99 1023.7 8.3 NW 12.1 0.0 0.1
10:16 12.0 11.9 99 1023.8 9.8 N 12.1 0.0 0.1
10:17 12.0 11.9 99 1023.7 9.2 N 12.1 0.0 0.1
10:18 12.1 12.0 99 1023.7 9.8 NW 12.1 0.0 0.1
10:19 12.1 12.0 99 1023.9 6.0 NW 12.1 0.0 0.1
10:20 12.1 12.0 99 1023.7 9.2 NW 12.1 0.0 0.1
10:21 12.1 12.0 99 1023.7 10.7 NW 12.1 0.0 0.1
10:22 12.1 12.0 99 1023.8 6.0 N 12.1 0.0 0.1
10:23 12.1 12.0 99 1023.7 6.9 NW 10.7 0.0 0.1
10:25 12.1 12.0 99 1023.7 9.2 NW 10.7 0.0 0.1
10:26 12.1 12.0 99 1023.8 5.4 NW 10.7 0.0 0.1
10:27 12.1 12.0 99 1023.8 8.3 W 10.7 0.0 0.1
10:28 12.2 12.1 99 1023.8 8.3 NW 10.7 0.0 0.1
10:29 12.2 12.1 99 1023.6 10.7 NW 10.7 0.0 0.1
10:30 12.2 12.1 99 1023.6 10.7 NW 10.7 0.0 0.1
10:31 12.2 12.1 99 1023.8 8.3 NW 10.7 0.0 0.1
10:32 12.3 12.2 99 1023.8 7.6 NW 10.7 0.0 0.1
10:33 12.4 12.3 99 1023.7 5.4 N 10.7 0.0 0.1
10:34 12.4 12.3 99 1023.7 6.0 N 10.7 0.0 0.1
10:35 12.5 12.4 99 1023.6 6.0 NW 10.7 0.0 0.1
10:36 12.5 12.4 99 1023.7 6.0 NW 10.7 0.0 0.1
10:37 12.6 12.5 99 1023.7 7.6 NW 10.7 0.0 0.1
10:38 12.7 12.6 99 1023.6 9.2 NW 10.7 0.0 0.1
10:39 12.7 12.6 99 1023.7 8.3 NW 10.7 0.0 0.1
10:41 12.8 12.7 99 1023.8 9.8 N 9.8 0.0 0.1
10:42 12.7 12.6 99 1023.7 6.9 NW 9.8 0.0 0.1
10:43 12.7 12.6 99 1023.7 7.6 N 9.8 0.0 0.1
10:44 12.7 12.6 99 1023.7 3.1 NW 9.8 0.0 0.1
10:45 12.7 12.6 99 1023.8 7.6 NW 9.8 0.0 0.1
10:46 12.7 12.6 99 1023.8 3.1 NW 9.8 0.0 0.1
10:47 12.7 12.6 99 1023.8 5.4 W 9.8 0.0 0.1
10:48 12.8 12.7 99 1023.8 6.9 N 9.8 0.0 0.1
10:49 12.7 12.6 99 1023.8 6.0 NW 9.8 0.0 0.1
10:50 12.8 12.7 99 1023.9 6.9 NW 9.8 0.0 0.1
10:51 12.7 12.6 99 1023.8 4.5 NW 9.8 0.0 0.1
10:52 12.8 12.7 99 1023.8 6.9 NW 9.8 0.0 0.1
10:53 12.8 12.7 99 1023.8 8.3 NW 9.8 0.0 0.1
10:54 12.8 12.7 99 1023.8 9.2 N 9.8 0.0 0.1
10:55 12.8 12.7 99 1023.8 3.1 N 9.8 0.0 0.1
10:57 12.8 12.7 99 1023.8 5.4 N 9.2 0.0 0.1
10:58 12.8 12.7 99 1023.9 6.9 NW 9.2 0.0 0.1
10:59 12.8 12.7 99 1023.7 7.6 N 9.2 0.0 0.1
11:00 12.8 12.5 98 1024.0 7.6 NW 9.2 0.0 0.1
11:01 12.8 12.5 98 1024.0 7.6 NW 9.2 0.0 0.1
11:02 12.8 12.5 98 1023.8 13.0 NW 13.0 0.0 0.1
11:03 12.7 12.4 98 1023.9 6.9 N 13.0 0.0 0.1
11:04 12.7 12.4 98 1023.9 6.0 NW 13.0 0.0 0.1
11:05 12.7 12.4 98 1023.9 6.0 NW 13.0 0.0 0.1
11:06 12.7 12.4 98 1023.8 6.9 NW 13.0 0.0 0.1
11:07 12.7 12.4 98 1023.9 9.8 N 13.0 0.0 0.1
11:08 12.7 12.4 98 1024.0 5.4 NW 13.0 0.0 0.1
11:09 12.7 12.4 98 1023.8 5.4 N 13.0 0.0 0.1
11:10 12.8 12.5 98 1024.0 3.8 N 13.0 0.0 0.1
11:11 12.8 12.5 98 1023.9 4.5 NW 13.0 0.0 0.1
11:12 12.9 12.6 98 1023.8 6.0 N 9.8 0.0 0.1
11:13 12.9 12.6 98 1023.9 3.8 N 9.8 0.0 0.1
11:14 13.0 12.7 98 1024.0 3.8 N 9.8 0.0 0.1
11:15 13.0 12.7 98 1024.0 6.0 NW 9.8 0.0 0.1
11:17 13.0 12.7 98 1023.8 8.3 NW 9.8 0.0 0.1
11:18 13.1 12.8 98 1023.9 8.3 NW 8.3 0.0 0.1
11:19 13.0 12.7 98 1023.9 7.6 NW 8.3 0.0 0.1
11:20 13.0 12.7 98 1024.0 6.0 NW 8.3 0.0 0.1
11:21 13.0 12.7 98 1023.7 8.3 NW 8.3 0.0 0.1
11:22 13.0 12.7 98 1024.0 5.4 NW 8.3 0.0 0.1
11:23 13.0 12.7 98 1023.8 8.3 NE 8.3 0.0 0.1
11:24 13.0 12.5 97 1024.0 7.6 NW 8.3 0.0 0.1
11:25 13.1 12.6 97 1023.8 9.8 NW 9.8 0.0 0.1
11:26 13.0 12.5 97 1023.9 6.0 NW 9.8 0.0 0.1
11:27 13.1 12.6 97 1023.9 6.0 E 9.8 0.0 0.1
11:28 13.1 12.6 97 1023.9 6.0 NW 9.8 0.0 0.1
11:29 13.1 12.6 97 1023.9 8.3 NW 9.8 0.0 0.1
11:30 13.1 12.6 97 1023.9 8.3 NW 9.8 0.0 0.1
11:31 13.1 12.6 97 1023.8 10.7 NW 10.7 0.0 0.1
11:32 13.1 12.6 97 1023.9 8.3 NW 10.7 0.0 0.1
11:33 13.1 12.6 97 1023.8 8.3 NW 10.7 0.0 0.1
11:34 13.0 12.5 97 1023.8 8.3 NW 10.7 0.0 0.1
11:35 13.1 12.6 97 1023.8 6.0 NW 10.7 0.0 0.1
11:36 13.1 12.6 97 1023.8 8.3 NW 10.7 0.0 0.1
11:38 13.0 12.5 97 1023.8 8.3 NW 10.7 0.0 0.1
11:39 13.0 12.5 97 1023.8 10.7 NW 10.7 0.0 0.1
11:40 12.9 12.4 97 1023.8 5.4 NW 10.7 0.0 0.1
11:41 12.9 12.4 97 1023.9 7.6 NW 10.7 0.0 0.1
11:42 12.9 12.4 97 1023.8 6.9 W 10.7 0.0 0.1
11:43 13.0 12.5 97 1023.9 6.9 NW 10.7 0.0 0.1
11:44 13.0 12.5 97 1023.8 9.2 NW 10.7 0.0 0.1
11:45 13.0 12.5 97 1023.8 7.6 N 10.7 0.0 0.1
11:46 13.0 12.5 97 1023.9 9.2 NW 10.7 0.0 0.1
11:47 13.0 12.5 97 1023.8 6.0 NW 10.7 0.0 0.1
11:48 13.1 12.6 97 1023.9 7.6 NW 10.7 0.0 0.1
11:49 13.1 12.5 96 1023.9 4.5 NW 9.2 0.0 0.1
11:50 13.1 12.5 96 1023.9 5.4 N 9.2 0.0 0.1
11:51 13.1 12.5 96 1023.9 7.6 NW 9.2 0.0 0.1
11:52 13.1 12.5 96 1024.0 7.6 NW 9.2 0.0 0.1
11:53 13.1 12.5 96 1024.0 9.2 NW 9.2 0.0 0.1
11:54 13.1 12.5 96 1023.9 9.8 N 9.8 0.0 0.1
11:55 13.1 12.5 96 1023.9 6.0 NW 9.8 0.0 0.1
11:56 13.1 12.5 96 1023.9 5.4 NW 9.8 0.0 0.1
11:57 13.1 12.5 96 1023.8 4.5 N 9.8 0.0 0.1
11:59 13.1 12.5 96 1023.8 6.0 NW 9.8 0.0 0.1
12:00 13.2 12.6 96 1023.7 5.4 NW 9.8 0.0 0.1
12:01 13.2 12.6 96 1023.8 5.4 NW 9.8 0.0 0.1
12:02 13.2 12.6 96 1023.8 3.8 NW 9.8 0.0 0.1
12:03 13.2 12.6 96 1023.7 5.4 NW 9.8 0.0 0.1
12:04 13.3 12.7 96 1023.8 5.4 NW 9.8 0.0 0.1
12:05 13.3 12.7 96 1023.8 5.4 NW 8.3 0.0 0.1
12:06 13.3 12.7 96 1023.8 5.4 N 8.3 0.0 0.1
12:07 13.4 12.8 96 1023.8 6.9 NW 8.3 0.0 0.1
12:08 13.5 12.9 96 1023.8 8.3 NW 8.3 0.0 0.1
12:09 13.5 12.9 96 1024.0 5.4 NW 8.3 0.0 0.1
12:11 13.6 13.0 96 1023.8 6.9 NE 8.3 0.0 0.1
12:12 13.7 13.1 96 1023.8 11.4 NE 11.4 0.0 0.1
12:14 13.7 12.9 95 1024.0 6.9 NW 11.4 0.0 0.1
12:15 13.8 13.0 95 1023.8 7.6 N 11.4 0.0 0.1
12:16 13.8 13.0 95 1023.9 6.9 E 11.4 0.0 0.1
12:17 14.0 13.2 95 1024.0 6.0 NW 11.4 0.0 0.1
12:18 14.0 13.2 95 1023.9 7.6 NW 11.4 0.0 0.1
12:19 14.0 13.2 95 1023.8 9.2 NW 11.4 0.0 0.1
12:20 14.0 13.1 94 1024.0 6.0 W 11.4 0.0 0.1
12:22 14.1 13.0 93 1023.8 9.8 NW 11.4 0.0 0.1
12:23 14.1 13.0 93 1023.9 6.9 N 9.8 0.0 0.1
12:24 14.1 13.0 93 1023.9 6.9 N 9.8 0.0 0.1
12:25 14.1 13.0 93 1023.9 6.0 NW 9.8 0.0 0.1
12:26 14.1 13.0 93 1023.9 9.8 NW 9.8 0.0 0.1
12:27 14.1 12.8 92 1024.0 6.9 NW 9.8 0.0 0.1
12:28 14.1 12.8 92 1023.9 6.9 NW 9.8 0.0 0.1
12:29 14.1 12.8 92 1024.0 4.5 NW 9.8 0.0 0.1
12:30 14.1 12.8 92 1023.8 6.9 NW 9.8 0.0 0.1
12:31 14.1 12.8 92 1024.0 4.5 NW 9.8 0.0 0.1
12:32 14.1 12.8 92 1023.8 6.9 NW 9.8 0.0 0.1
12:33 14.1 12.8 92 1023.9 6.0 NW 9.8 0.0 0.1
12:34 14.1 12.7 91 1023.8 12.1 NW 12.1 0.0 0.1
12:35 14.1 12.7 91 1024.1 7.6 NW 12.1 0.0 0.1
12:36 14.1 12.7 91 1024.0 9.8 N 12.1 0.0 0.1
12:37 14.1 12.5 90 1024.1 4.5 NW 12.1 0.0 0.1
12:38 14.1 12.7 91 1024.0 7.6 N 12.1 0.0 0.1
12:40 14.1 12.7 91 1024.1 6.0 NW 12.1 0.0 0.1
12:41 14.2 12.8 91 1024.2 9.2 SW 12.1 0.0 0.1
12:42 14.2 12.8 91 1023.9 6.9 W 12.1 0.0 0.1
12:43 14.2 12.6 90 1024.0 7.6 N 12.1 0.0 0.1
12:44 14.1 12.5 90 1024.1 5.4 NW 12.1 0.0 0.1
12:45 14.1 12.5 90 1024.1 4.5 NW 9.8 0.0 0.1
12:46 14.1 12.5 90 1023.9 7.6 NW 9.8 0.0 0.1
12:47 14.1 12.5 90 1024.0 9.2 NW 9.2 0.0 0.1
12:48 14.1 12.5 90 1024.0 5.4 NW 9.2 0.0 0.1
12:49 14.1 12.5 90 1024.0 6.9 NW 9.2 0.0 0.1
12:50 14.1 12.5 90 1024.0 7.6 SW 9.2 0.0 0.1
12:51 14.1 12.5 90 1024.1 9.8 NW 9.8 0.0 0.1
12:52 14.1 12.5 90 1024.0 7.6 NW 9.8 0.0 0.1
12:53 14.1 12.5 90 1024.0 5.4 NW 9.8 0.0 0.1
12:54 14.1 12.5 90 1024.1 14.5 W 14.5 0.0 0.1
12:55 14.0 12.2 89 1024.1 8.3 NW 14.5 0.0 0.1
12:56 13.9 12.1 89 1024.0 6.9 N 14.5 0.0 0.1
12:58 13.9 12.3 90 1024.0 6.9 N 14.5 0.0 0.1
12:59 13.9 12.3 90 1024.1 11.4 W 14.5 0.0 0.1
13:00 13.9 12.3 90 1024.0 9.8 SW 14.5 0.0 0.1
13:01 13.9 12.3 90 1024.1 9.8 SW 14.5 0.0 0.1
13:02 13.9 12.3 90 1024.0 3.8 NW 14.5 0.0 0.1
13:03 14.0 12.4 90 1024.0 6.9 NW 14.5 0.0 0.1
13:04 14.0 12.4 90 1023.9 6.9 NW 14.5 0.0 0.1
13:05 14.1 12.5 90 1024.2 7.6 NW 11.4 0.0 0.1
13:06 14.2 12.6 90 1024.2 6.0 NW 11.4 0.0 0.1
13:07 14.3 12.7 90 1024.1 6.9 N 11.4 0.0 0.1
13:08 14.3 12.7 90 1024.1 8.3 NW 11.4 0.0 0.1
13:09 14.3 12.7 90 1024.0 8.3 NW 9.8 0.0 0.1
13:10 14.4 12.6 89 1024.1 10.7 NW 10.7 0.0 0.1
13:11 14.3 12.5 89 1023.9 9.8 NW 10.7 0.0 0.1
13:13 14.2 12.4 89 1023.8 9.8 W 10.7 0.0 0.1
13:14 14.2 12.2 88 1024.0 10.7 W 10.7 0.0 0.1
13:15 14.1 12.1 88 1024.1 7.6 SW 10.7 0.0 0.1
13:16 14.0 12.2 89 1024.0 7.6 NW 10.7 0.0 0.1
13:17 14.0 12.2 89 1024.0 5.4 NW 10.7 0.0 0.1
13:19 14.1 12.5 90 1024.1 7.6 N 10.7 0.0 0.1
13:20 14.1 12.5 90 1024.0 8.3 N 10.7 0.0 0.1
13:21 14.2 12.6 90 1024.0 7.6 NW 10.7 0.0 0.1
13:22 14.2 12.6 90 1024.0 6.9 N 10.7 0.0 0.1
13:23 14.2 12.6 90 1024.0 6.9 N 10.7 0.0 0.1
13:24 14.3 12.7 90 1024.0 6.0 N 8.3 0.0 0.1
13:25 14.4 12.8 90 1024.0 6.0 NW 8.3 0.0 0.1
13:26 14.4 12.8 90 1023.9 6.9 NW 8.3 0.0 0.1
13:28 14.5 12.7 89 1024.0 9.8 NW 9.8 0.0 0.1
13:29 14.5 12.7 89 1024.0 11.4 NW 11.4 0.0 0.1
13:30 14.5 12.7 89 1023.9 10.7 NW 11.4 0.0 0.1
13:31 14.5 12.7 89 1023.9 7.6 NW 11.4 0.0 0.1
13:32 14.4 12.6 89 1023.9 8.3 NW 11.4 0.0 0.1
13:33 14.4 12.6 89 1023.8 9.2 NW 11.4 0.0 0.1
13:34 14.4 12.4 88 1024.0 6.9 NW 11.4 0.0 0.1
13:35 14.3 12.3 88 1023.9 7.6 NW 11.4 0.0 0.1
13:36 14.3 12.3 88 1023.8 9.8 W 11.4 0.0 0.1
13:37 14.3 12.3 88 1024.0 7.6 NW 11.4 0.0 0.1
13:39 14.2 12.2 88 1023.9 9.2 NW 11.4 0.0 0.1
13:40 14.2 12.4 89 1024.0 6.9 NW 9.8 0.0 0.1
13:41 14.2 12.4 89 1024.0 7.6 NW 9.8 0.0 0.1
13:42 14.3 12.5 89 1023.8 10.7 N 10.7 0.0 0.1
13:43 14.2 12.4 89 1023.9 8.3 NW 10.7 0.0 0.1
13:44 14.2 12.4 89 1023.9 7.6 NW 10.7 0.0 0.1
13:45 14.3 12.5 89 1023.9 9.8 NW 10.7 0.0 0.1
13:46 14.3 12.5 89 1023.9 9.2 NW 10.7 0.0 0.1
13:47 14.3 12.5 89 1023.9 6.0 NW 10.7 0.0 0.1
13:48 14.4 12.6 89 1024.0 10.7 NE 10.7 0.0 0.1
13:49 14.4 12.6 89 1023.8 6.9 N 10.7 0.0 0.1
13:50 14.5 12.7 89 1023.8 9.2 NW 10.7 0.0 0.1
13:51 14.6 12.8 89 1023.7 7.6 NW 10.7 0.0 0.1
13:52 14.6 12.6 88 1023.9 9.8 NW 11.4 0.0 0.1
13:54 14.6 12.6 88 1023.8 9.2 N 11.4 0.0 0.1
13:55 14.6 12.6 88 1023.8 11.4 NW 11.4 0.0 0.1
13:56 14.6 12.6 88 1023.8 8.3 NW 13.0 0.0 0.1
13:57 14.6 12.6 88 1023.8 6.9 W 13.0 0.0 0.1
13:58 14.6 12.6 88 1023.8 9.2 NW 13.0 0.0 0.1
13:59 14.7 12.7 88 1023.9 8.3 N 13.0 0.0 0.1
14:00 14.7 12.7 88 1023.8 9.8 NW 13.0 0.0 0.1
14:01 14.7 12.7 88 1023.8 5.4 NW 13.0 0.0 0.1
14:02 14.8 12.8 88 1023.8 6.0 E 13.0 0.0 0.1
14:04 14.8 12.7 87 1023.8 8.3 NW 13.0 0.0 0.1
14:05 14.8 12.7 87 1023.9 6.0 NW 13.0 0.0 0.1
14:06 14.7 12.6 87 1023.8 11.4 NW 11.4 0.0 0.1
14:07 14.9 12.9 88 1024.0 8.3 N 11.4 0.0 0.1
14:08 14.9 12.8 87 1023.8 9.8 N 11.4 0.0 0.1
14:09 14.9 12.8 87 1023.8 9.2 NW 11.4 0.0 0.1
14:11 14.9 12.8 87 1023.9 7.6 NW 13.6 0.0 0.1
14:12 14.9 12.8 87 1023.9 12.1 NW 13.6 0.0 0.1
14:13 14.9 12.8 87 1023.6 6.9 NW 13.6 0.0 0.1
14:15 14.9 12.8 87 1023.7 7.6 NW 13.6 0.0 0.1
14:16 14.9 12.8 87 1023.7 11.4 NW 13.6 0.0 0.1
14:17 14.9 12.6 86 1023.8 15.2 NW 15.2 0.0 0.1
14:18 14.8 12.5 86 1023.8 10.7 NW 15.2 0.0 0.1
14:19 14.8 12.5 86 1023.7 9.8 NW 15.2 0.0 0.1
14:21 14.6 12.3 86 1023.8 11.4 N 15.2 0.0 0.1
14:22 14.6 12.3 86 1023.7 9.2 N 15.2 0.0 0.1
14:23 14.6 12.5 87 1023.8 6.9 SW 15.2 0.0 0.1
14:24 14.6 12.5 87 1023.9 6.9 NW 15.2 0.0 0.1
14:25 14.7 12.6 87 1023.8 5.4 NW 15.2 0.0 0.1
14:26 14.7 12.6 87 1023.8 7.6 NW 15.2 0.0 0.1
14:27 14.7 12.4 86 1023.8 6.0 NW 15.2 0.0 0.1
14:28 14.6 12.3 86 1023.6 9.8 NW 12.1 0.0 0.1
14:29 14.8 12.5 86 1023.8 5.4 NW 12.1 0.0 0.1
14:30 14.8 12.5 86 1023.7 9.8 NW 12.1 0.0 0.1
14:31 14.9 12.6 86 1023.7 5.4 N 12.1 0.0 0.1
14:32 14.9 12.8 87 1023.6 8.3 N 12.1 0.0 0.1
14:33 14.9 12.8 87 1023.6 7.6 N 12.1 0.0 0.1
14:34 15.0 12.7 86 1023.7 9.2 NW 12.1 0.0 0.1
14:35 14.9 12.6 86 1023.7 9.2 N 12.1 0.0 0.1
14:36 14.9 12.6 86 1023.6 9.2 N 12.1 0.0 0.1
14:38 14.9 12.6 86 1023.7 8.3 N 12.1 0.0 0.1
14:39 14.9 12.6 86 1023.7 6.9 N 9.8 0.0 0.1
14:40 14.9 12.6 86 1023.7 9.8 NW 9.8 0.0 0.1
14:41 14.9 12.6 86 1023.7 9.2 NW 9.8 0.0 0.1
14:42 14.9 12.6 86 1023.6 9.2 NW 9.8 0.0 0.1
14:43 14.9 12.6 86 1023.7 9.2 W 10.7 0.0 0.1
14:44 14.9 12.6 86 1023.6 8.3 NW 10.7 0.0 0.1
14:45 14.9 12.6 86 1023.6 5.4 NW 10.7 0.0 0.1
14:46 14.8 12.3 85 1023.7 10.7 W 10.7 0.0 0.1
14:47 14.8 12.3 85 1023.5 9.2 NW 10.7 0.0 0.1
14:48 14.8 12.5 86 1023.6 11.4 NW 11.4 0.0 0.1
14:49 14.7 12.4 86 1023.8 7.6 NW 11.4 0.0 0.1
14:50 14.7 12.2 85 1023.6 8.3 N 11.4 0.0 0.1
14:51 14.7 12.2 85 1023.7 9.8 NW 11.4 0.0 0.1
14:53 14.6 12.3 86 1023.7 9.2 NW 11.4 0.0 0.1
14:55 14.6 12.1 85 1023.8 10.7 NW 11.4 0.0 0.1
14:57 14.5 12.0 85 1023.8 11.4 W 11.4 0.0 0.1
14:59 14.4 11.9 85 1023.8 8.3 W 13.0 0.0 0.1
15:02 14.2 11.9 86 1023.8 10.7 NW 13.0 0.0 0.1
15:04 14.3 12.2 87 1023.7 3.8 NW 13.0 0.0 0.1
15:06 14.4 12.1 86 1023.8 9.2 NW 13.0 0.0 0.1
15:08 14.5 12.2 86 1023.8 7.6 NW 13.0 0.0 0.1
15:11 14.5 12.0 85 1023.7 9.2 W 10.7 0.0 0.1
15:13 14.6 12.1 85 1023.8 12.1 NW 12.1 0.0 0.1
15:15 14.5 12.0 85 1023.8 6.9 W 12.1 0.0 0.1
15:17 14.5 12.2 86 1023.6 8.3 N 12.1 0.0 0.1
15:19 14.5 12.2 86 1023.5 8.3 NW 12.1 0.0 0.1
15:22 14.5 12.2 86 1023.6 8.3 W 12.1 0.0 0.1
15:24 14.5 12.2 86 1023.3 9.8 W 12.1 0.0 0.1
15:25 14.5 12.2 86 1023.6 9.2 NW 12.1 0.0 0.1
15:27 14.6 12.3 86 1023.5 6.9 NW 12.1 0.0 0.1
15:29 14.6 12.3 86 1023.6 9.2 NW 12.1 0.0 0.1
15:32 14.5 12.0 85 1023.5 10.7 W 11.4 0.0 0.1
15:34 14.4 12.1 86 1023.7 5.4 NW 11.4 0.0 0.1
15:36 14.5 12.2 86 1023.5 6.9 W 11.4 0.0 0.1
15:37 14.4 11.9 85 1023.5 11.4 NW 11.4 0.0 0.1
15:38 14.3 11.8 85 1023.5 9.2 W 11.4 0.0 0.1
15:40 14.4 12.1 86 1023.3 6.9 N 11.4 0.0 0.1
15:41 14.3 12.0 86 1023.5 7.6 NW 11.4 0.0 0.1
15:42 14.3 12.0 86 1023.4 15.2 NW 15.2 0.0 0.1
15:43 14.2 11.7 85 1023.5 11.4 NW 15.2 0.0 0.1
15:44 14.2 11.7 85 1023.4 9.2 W 15.2 0.0 0.1
15:45 14.1 11.6 85 1023.5 10.7 NW 15.2 0.0 0.1
15:46 14.0 11.7 86 1023.4 10.7 W 15.2 0.0 0.1
15:47 13.9 11.6 86 1023.6 6.9 NW 15.2 0.0 0.1
15:48 13.9 11.6 86 1023.4 6.9 NW 15.2 0.0 0.1
15:49 13.9 11.8 87 1023.4 8.3 NW 15.2 0.0 0.1
15:50 13.9 11.8 87 1023.5 6.0 W 15.2 0.0 0.1
15:51 13.9 11.8 87 1023.4 9.8 W 15.2 0.0 0.1
15:52 13.9 11.8 87 1023.5 7.6 N 15.2 0.0 0.1
15:53 13.9 11.8 87 1023.6 9.2 NW 10.7 0.0 0.1
15:54 13.9 11.8 87 1023.6 9.2 NW 10.7 0.0 0.1
15:56 13.9 11.8 87 1023.5 9.8 NW 10.7 0.0 0.1
15:57 13.9 11.8 87 1023.5 9.2 NW 9.8 0.0 0.1
15:58 13.9 11.8 87 1023.5 6.9 W 9.8 0.0 0.1
15:59 13.9 11.8 87 1023.4 6.9 NW 9.8 0.0 0.1
16:00 14.0 11.9 87 1023.4 9.8 NW 9.8 0.0 0.1
16:01 14.0 11.9 87 1023.4 9.8 NW 9.8 0.0 0.1
16:02 14.0 11.9 87 1023.3 8.3 NW 9.8 0.0 0.1
16:03 14.0 12.0 88 1023.4 9.8 NW 9.8 0.0 0.1
16:04 14.1 12.1 88 1023.3 8.3 NW 9.8 0.0 0.1
16:05 14.2 12.1 87 1023.3 10.7 NW 11.4 0.0 0.1
16:06 14.2 12.2 88 1023.3 8.3 NW 11.4 0.0 0.1
16:07 14.3 12.3 88 1023.3 9.8 N 11.4 0.0 0.1
16:08 14.3 12.2 87 1023.3 13.0 NW 13.0 0.0 0.1
16:10 14.3 12.2 87 1023.3 4.5 NW 13.0 0.0 0.1
16:11 14.3 12.2 87 1023.3 5.4 N 13.0 0.0 0.1
16:13 14.3 12.2 87 1023.3 5.4 NW 13.0 0.0 0.1
16:14 14.3 12.2 87 1023.3 11.4 NW 13.0 0.0 0.1
16:16 14.3 12.2 87 1023.2 6.0 NW 13.0 0.0 0.1
16:17 14.4 12.3 87 1023.3 7.6 NW 13.0 0.0 0.1
16:18 14.4 12.3 87 1023.2 6.0 N 11.4 0.0 0.1
16:20 14.5 12.4 87 1023.2 7.6 NW 11.4 0.0 0.1
16:21 14.5 12.4 87 1023.3 8.3 NW 11.4 0.0 0.1
16:22 14.5 12.4 87 1023.2 7.6 NW 11.4 0.0 0.1
16:23 14.6 12.5 87 1023.3 8.3 NW 11.4 0.0 0.1
16:24 14.6 12.3 86 1023.1 6.9 N 11.4 0.0 0.1
16:25 14.7 12.6 87 1023.1 6.0 W 8.3 0.0 0.1
16:26 14.7 12.6 87 1023.1 9.8 NW 9.8 0.0 0.1
16:27 14.8 12.5 86 1023.4 10.7 W 10.7 0.0 0.1
16:28 14.8 12.5 86 1023.2 7.6 W 10.7 0.0 0.1
16:29 14.8 12.5 86 1023.1 9.8 W 10.7 0.0 0.1
16:30 14.8 12.5 86 1023.3 7.6 W 10.7 0.0 0.1
16:31 14.9 12.6 86 1023.1 8.3 NW 10.7 0.0 0.1
16:32 15.0 12.7 86 1023.0 10.7 W 12.1 0.0 0.1
16:33 15.0 12.7 86 1023.2 8.3 N 12.1 0.0 0.1
16:35 15.0 12.5 85 1023.1 12.1 NW 12.1 0.0 0.1
16:36 15.0 12.7 86 1023.2 8.3 W 12.1 0.0 0.1
16:37 15.1 12.6 85 1023.1 11.4 NW 12.1 0.0 0.1
16:38 15.1 12.6 85 1023.1 8.3 NW 12.1 0.0 0.1
16:39 15.1 12.4 84 1023.1 8.3 N 12.1 0.0 0.1
16:40 15.2 12.5 84 1023.1 5.4 NW 12.1 0.0 0.1
16:41 15.2 12.7 85 1023.1 7.6 NW 12.1 0.0 0.1
16:42 15.2 12.7 85 1023.1 8.3 SW 12.1 0.0 0.1
16:43 15.2 12.5 84 1023.1 9.2 N 12.1 0.0 0.1
16:44 15.2 12.7 85 1023.1 8.3 W 12.1 0.0 0.1
16:45 15.2 12.5 84 1023.1 7.6 W 11.4 0.0 0.1
16:46 15.2 12.5 84 1023.0 6.9 N 11.4 0.0 0.1
16:47 15.2 12.7 85 1023.2 7.6 NW 9.2 0.0 0.1
16:48 15.2 12.7 85 1023.1 9.2 NW 9.2 0.0 0.1
16:49 15.2 12.5 84 1023.1 6.0 NW 9.2 0.0 0.1
16:51 15.1 12.4 84 1023.0 8.3 N 9.2 0.0 0.1
16:52 15.1 12.4 84 1023.1 13.0 NW 13.0 0.0 0.1
16:53 15.1 12.4 84 1023.0 12.1 NW 13.0 0.0 0.1
16:54 15.0 12.3 84 1023.2 13.0 NW 13.0 0.0 0.1
16:55 14.9 12.0 83 1023.1 6.9 NW 13.0 0.0 0.1
16:56 14.9 12.2 84 1023.2 7.6 N 13.0 0.0 0.1
16:57 14.9 12.2 84 1023.1 9.8 NW 13.0 0.0 0.1
16:58 14.9 12.2 84 1023.1 3.8 N 13.0 0.0 0.1
16:59 14.9 12.2 84 1023.1 5.4 NW 13.0 0.0 0.1
17:00 14.9 12.4 85 1023.0 6.9 N 13.0 0.0 0.1
17:02 15.0 12.5 85 1023.0 7.6 W 13.0 0.0 0.1
17:03 15.0 12.3 84 1022.9 9.2 NW 13.0 0.0 0.1
17:04 15.0 12.3 84 1023.0 9.8 NW 9.8 0.0 0.1
17:05 15.0 12.3 84 1022.9 9.8 NW 9.8 0.0 0.1
17:06 14.9 12.2 84 1022.9 7.6 NW 9.8 0.0 0.1
17:07 14.9 12.2 84 1022.9 8.3 N 9.8 0.0 0.1
17:08 14.9 12.2 84 1023.0 5.4 NW 9.8 0.0 0.1
17:09 14.9 12.2 84 1022.9 9.2 NW 10.7 0.0 0.1
17:10 14.8 12.1 84 1023.0 7.6 NW 10.7 0.0 0.1
17:11 14.8 12.1 84 1023.1 7.6 NW 10.7 0.0 0.1
17:12 14.7 12.0 84 1023.1 11.4 NW 11.4 0.0 0.1
17:13 14.7 12.0 84 1023.0 10.7 NW 11.4 0.0 0.1
17:14 14.7 12.0 84 1022.9 10.7 W 11.4 0.0 0.1
17:16 14.6 11.9 84 1023.1 12.1 W 12.1 0.0 0.1
17:17 14.6 11.9 84 1022.9 8.3 W 12.1 0.0 0.1
17:18 14.6 11.9 84 1023.2 6.9 N 12.1 0.0 0.1
17:19 14.6 12.1 85 1023.0 4.5 N 12.1 0.0 0.1
17:20 14.7 12.0 84 1023.0 6.9 NW 12.1 0.0 0.1
17:21 14.6 11.9 84 1022.9 9.2 W 12.1 0.0 0.1
17:22 14.6 11.9 84 1022.9 8.3 NW 12.1 0.0 0.1
17:24 14.5 11.8 84 1023.0 9.2 W 12.1 0.0 0.1
17:25 14.5 11.8 84 1023.0 11.4 W 12.1 0.0 0.1
17:26 14.4 11.7 84 1023.0 9.8 NW 12.1 0.0 0.1
17:27 14.4 11.7 84 1022.9 9.8 W 11.4 0.0 0.1
17:28 14.3 11.6 84 1023.0 13.0 NW 13.0 0.0 0.1
17:29 14.3 11.6 84 1023.1 9.2 NW 13.0 0.0 0.1
17:30 14.3 11.6 84 1022.9 8.3 NW 13.0 0.0 0.1
17:31 14.2 11.5 84 1022.9 8.3 W 13.0 0.0 0.1
17:32 14.1 11.4 84 1023.0 6.9 NW 13.0 0.0 0.1
17:33 14.1 11.4 84 1022.9 8.3 NW 13.0 0.0 0.1
17:34 14.0 11.2 83 1022.8 8.3 W 13.0 0.0 0.1
17:35 14.0 11.3 84 1022.8 6.9 N 13.0 0.0 0.1
17:36 13.9 11.2 84 1023.0 5.4 NW 13.0 0.0 0.1
17:37 13.8 11.1 84 1022.8 8.3 NW 13.0 0.0 0.1
17:38 13.8 11.1 84 1022.9 6.0 SW 9.2 0.0 0.1
17:40 13.8 11.3 85 1023.0 5.4 N 9.2 0.0 0.1
17:41 13.8 11.3 85 1022.8 5.4 NW 9.2 0.0 0.1
17:42 13.8 11.5 86 1022.9 6.9 N 9.2 0.0 0.1
17:43 13.9 11.6 86 1023.0 9.2 NW 9.2 0.0 0.1
17:44 13.9 11.6 86 1022.8 7.6 N 9.2 0.0 0.1
17:45 13.8 11.5 86 1023.1 6.9 NW 9.2 0.0 0.1
17:46 13.8 11.5 86 1022.9 6.9 NW 9.2 0.0 0.1
17:47 13.8 11.5 86 1022.9 9.8 W 9.8 0.0 0.1
17:48 13.7 11.2 85 1023.0 6.0 W 9.8 0.0 0.1
17:49 13.7 11.2 85 1022.8 7.6 NW 9.8 0.0 0.1
17:50 13.7 11.2 85 1022.8 8.3 NW 9.8 0.0 0.1
17:51 13.6 11.1 85 1022.8 9.8 NW 9.8 0.0 0.1
17:52 13.6 11.1 85 1022.8 3.8 NW 9.8 0.0 0.1
17:54 13.5 11.0 85 1023.0 7.6 W 9.8 0.0 0.1
17:55 13.5 11.0 85 1023.0 7.6 NW 9.8 0.0 0.1
17:56 13.4 11.1 86 1022.8 4.5 NW 10.7 0.0 0.1
17:57 13.4 11.1 86 1022.9 7.6 W 10.7 0.0 0.1
17:58 13.3 11.0 86 1022.9 10.7 NW 10.7 0.0 0.1
17:59 13.3 11.0 86 1023.0 6.9 W 10.7 0.0 0.1
18:00 13.3 11.0 86 1022.9 9.2 W 10.7 0.0 0.1
18:01 13.3 11.0 86 1023.1 5.4 W 10.7 0.0 0.1
18:02 13.2 10.9 86 1022.9 6.9 NW 10.7 0.0 0.1
18:03 13.2 10.9 86 1022.9 10.7 NW 10.7 0.0 0.1
18:04 13.2 11.1 87 1023.1 13.6 NW 13.6 0.0 0.1
18:05 13.2 11.1 87 1022.9 8.3 N 13.6 0.0 0.1
18:06 13.2 11.1 87 1023.1 9.2 N 13.6 0.0 0.1
18:07 13.1 11.0 87 1022.8 8.3 NW 13.6 0.0 0.1
18:09 13.1 11.0 87 1023.0 11.4 W 13.6 0.0 0.1
18:10 13.1 11.0 87 1023.0 7.6 W 13.6 0.0 0.1
18:11 13.0 10.9 87 1022.9 9.2 W 13.6 0.0 0.1
18:13 13.0 10.9 87 1023.0 10.7 NW 13.6 0.0 0.1
18:14 13.0 10.9 87 1023.0 6.9 NW 13.6 0.0 0.1
18:16 13.0 10.9 87 1023.0 9.2 NW 12.1 0.0 0.1
18:18 12.9 10.8 87 1023.1 7.6 NW 12.1 0.0 0.1
18:19 12.9 10.8 87 1023.1 13.6 NW 13.6 0.0 0.1
18:20 12.9 11.0 88 1023.1 11.4 N 13.6 0.0 0.1
18:21 12.9 11.0 88 1023.0 11.4 NW 13.6 0.0 0.1
18:22 12.8 10.9 88 1023.1 3.8 NW 13.6 0.0 0.1
18:23 12.9 11.0 88 1022.9 6.0 SW 13.6 0.0 0.1
18:24 12.8 10.9 88 1022.9 6.0 NW 13.6 0.0 0.1
18:25 12.8 10.9 88 1022.9 6.9 NW 13.6 0.0 0.1
18:27 12.8 10.9 88 1022.8 7.6 NW 13.6 0.0 0.1
18:28 12.8 10.9 88 1022.8 9.2 N 13.6 0.0 0.1
18:29 12.8 10.9 88 1022.8 8.3 NW 13.6 0.0 0.1
18:30 12.8 10.9 88 1022.9 8.3 NW 11.4 0.0 0.1
18:31 12.8 10.9 88 1023.0 9.2 NW 11.4 0.0 0.1
18:32 12.8 10.9 88 1022.9 7.6 W 11.4 0.0 0.1
18:33 12.8 10.9 88 1023.0 8.3 NW 11.4 0.0 0.1
18:34 12.8 11.0 89 1022.9 6.0 N 11.4 0.0 0.1
18:36 12.7 10.9 89 1022.9 9.8 NW 11.4 0.0 0.1
18:37 12.7 10.9 89 1022.9 12.1 W 12.1 0.0 0.1
18:38 12.7 10.9 89 1023.0 8.3 NW 12.1 0.0 0.1
18:39 12.6 10.8 89 1022.9 13.0 NW 13.0 0.0 0.1
18:40 12.6 10.8 89 1022.8 10.7 W 13.0 0.0 0.1
18:41 12.5 10.7 89 1023.0 8.3 W 13.0 0.0 0.1
18:42 12.5 10.7 89 1023.0 7.6 W 13.0 0.0 0.1
18:43 12.5 10.7 89 1022.8 9.2 NW 13.0 0.0 0.1
18:44 12.4 10.6 89 1022.8 6.9 N 13.0 0.0 0.1
18:46 12.4 10.6 89 1022.9 8.3 NW 13.0 0.0 0.1
18:48 12.3 10.5 89 1022.9 6.0 NW 13.0 0.0 0.1
18:50 12.3 10.5 89 1023.0 9.8 NE 11.4 0.0 0.1
18:51 12.3 10.5 89 1022.7 6.0 NW 11.4 0.0 0.1
18:53 12.3 10.7 90 1022.9 8.3 N 11.4 0.0 0.1
18:54 12.3 10.7 90 1022.9 12.1 NW 12.1 0.0 0.1
18:55 12.3 10.7 90 1022.9 12.1 NW 12.1 0.0 0.1
18:56 12.3 10.7 90 1022.9 4.5 NW 12.1 0.0 0.1
18:57 12.3 10.7 90 1022.9 10.7 NW 12.1 0.0 0.1
18:58 12.3 10.7 90 1022.9 8.3 N 12.1 0.0 0.1
18:59 12.3 10.7 90 1023.0 5.4 NW 12.1 0.0 0.1
19:00 12.3 10.7 90 1022.9 7.6 NW 12.1 0.0 0.1
19:02 12.2 10.6 90 1023.0 9.8 NW 12.1 0.0 0.1
19:03 12.3 10.7 90 1022.9 9.8 N 12.1 0.0 0.1
19:04 12.3 10.7 90 1022.9 14.5 N 14.5 0.0 0.1
19:05 12.2 10.6 90 1022.9 9.2 NW 14.5 0.0 0.1
19:06 12.2 10.6 90 1022.9 9.2 WNW 14.5 0.0 0.1
19:08 12.2 10.6 90 1023.0 10.7 NW 14.5 0.0 0.1
19:09 12.2 10.8 91 1023.0 9.8 NW 14.5 0.0 0.1
19:10 12.2 10.8 91 1023.1 9.2 N 14.5 0.0 0.1
19:11 12.2 10.8 91 1023.0 6.9 NW 14.5 0.0 0.1
19:12 12.2 10.8 91 1023.0 6.0 NW 14.5 0.0 0.1
19:13 12.1 10.7 91 1022.9 6.9 SW 14.5 0.0 0.1
19:14 12.2 10.8 91 1023.0 7.6 NW 10.7 0.0 0.1
19:16 12.1 10.7 91 1023.1 11.4 W 11.4 0.0 0.1
19:17 12.1 10.7 91 1022.9 10.7 SW 11.4 0.0 0.1
19:18 12.1 10.7 91 1023.0 9.2 NW 11.4 0.0 0.1
19:19 12.1 10.7 91 1023.0 7.6 NW 11.4 0.0 0.1
19:20 12.1 10.7 91 1023.0 6.0 NW 11.4 0.0 0.1
19:21 12.1 10.7 91 1022.9 12.1 NW 12.1 0.0 0.1
19:22 12.1 10.7 91 1022.9 9.2 NW 12.1 0.0 0.1
19:24 12.1 10.7 91 1022.8 8.3 NW 12.1 0.0 0.1
19:25 12.0 10.6 91 1023.0 6.0 W 12.1 0.0 0.1
19:26 12.0 10.6 91 1022.9 9.8 W 12.1 0.0 0.1
19:27 12.0 10.6 91 1023.1 10.7 NW 12.1 0.0 0.1
19:29 12.0 10.6 91 1022.9 7.6 N 12.1 0.0 0.1
19:30 11.9 10.5 91 1022.8 6.9 W 12.1 0.0 0.1
19:31 11.9 10.5 91 1023.0 6.9 W 12.1 0.0 0.1
19:33 11.9 10.5 91 1023.0 5.4 NW 10.7 0.0 0.1
19:34 11.9 10.6 92 1023.2 9.8 N 10.7 0.0 0.1
19:35 11.9 10.5 91 1023.0 12.1 NW 12.1 0.0 0.1
19:37 11.9 10.6 92 1023.1 6.9 NW 12.1 0.0 0.1
19:38 11.9 10.6 92 1023.0 9.8 NW 12.1 0.0 0.1
19:39 11.8 10.5 92 1023.1 9.2 W 12.1 0.0 0.1
19:40 11.8 10.5 92 1023.1 6.0 NW 12.1 0.0 0.1
19:41 11.8 10.5 92 1023.2 10.7 N 12.1 0.0 0.1
19:42 11.8 10.5 92 1023.0 6.0 N 12.1 0.0 0.1
19:43 11.8 10.5 92 1023.0 5.4 NW 12.1 0.0 0.1
19:44 11.7 10.4 92 1023.0 7.6 NW 12.1 0.0 0.1
19:45 11.8 10.5 92 1023.0 7.6 W 10.7 0.0 0.1
19:46 11.7 10.4 92 1023.2 9.8 NW 10.7 0.0 0.1
19:47 11.7 10.4 92 1022.9 8.3 NW 10.7 0.0 0.1
19:49 11.7 10.4 92 1022.9 13.0 NW 13.0 0.0 0.1
19:50 11.7 10.4 92 1022.9 9.2 NW 13.0 0.0 0.1
19:51 11.6 10.3 92 1023.0 9.2 NW 13.0 0.0 0.1
19:52 11.6 10.3 92 1023.0 8.3 NW 13.0 0.0 0.1
19:53 11.6 10.3 92 1022.9 9.2 NW 13.0 0.0 0.1
19:54 11.6 10.3 92 1022.9 7.6 N 13.0 0.0 0.1
19:55 11.6 10.3 92 1023.0 7.6 NW 13.0 0.0 0.1
19:56 11.6 10.3 92 1023.0 9.2 N 13.0 0.0 0.1
19:57 11.6 10.5 93 1022.8 9.2 NW 13.0 0.0 0.1
19:58 11.5 10.4 93 1022.9 7.6 NW 13.0 0.0 0.1
19:59 11.6 10.5 93 1022.9 7.6 NW 10.7 0.0 0.1
20:01 11.6 10.5 93 1022.9 9.8 NW 10.7 0.0 0.1
20:02 11.5 10.4 93 1023.1 8.3 NE 10.7 0.0 0.1
20:04 11.6 10.5 93 1023.0 10.7 NE 11.4 0.0 0.1
20:06 11.5 10.4 93 1023.0 9.2 NW 12.1 0.0 0.1
20:07 11.5 10.4 93 1023.1 6.9 W 12.1 0.0 0.1
20:09 11.5 10.4 93 1023.1 9.2 NW 12.1 0.0 0.1
20:11 11.4 10.3 93 1023.2 11.4 NW 12.1 0.0 0.1
20:13 11.4 10.3 93 1023.0 6.0 NW 12.1 0.0 0.1
20:15 11.4 10.3 93 1022.9 9.2 NW 12.1 0.0 0.1
20:17 11.3 10.2 93 1023.0 9.8 NW 12.1 0.0 0.1
20:18 11.3 10.2 93 1022.9 6.0 NW 13.0 0.0 0.1
20:20 11.3 10.2 93 1022.9 5.4 W 13.0 0.0 0.1
20:22 11.2 10.1 93 1023.0 8.3 NW 13.0 0.0 0.1
20:24 11.2 10.3 94 1023.0 7.6 N 13.0 0.0 0.1
20:26 11.2 10.3 94 1022.9 14.5 N 14.5 0.0 0.1
20:27 11.2 10.3 94 1023.1 6.9 NW 14.5 0.0 0.1
20:28 11.2 10.3 94 1023.0 6.9 NW 14.5 0.0 0.1
20:29 11.2 10.3 94 1022.9 8.3 W 14.5 0.0 0.1
20:30 11.2 10.3 94 1023.0 9.8 W 14.5 0.0 0.1
20:31 11.1 10.2 94 1022.9 5.4 NW 14.5 0.0 0.1
20:32 11.1 10.2 94 1023.0 12.1 NW 14.5 0.0 0.1
20:34 11.1 10.2 94 1022.8 8.3 NW 14.5 0.0 0.1
20:35 11.1 10.2 94 1022.9 8.3 NW 14.5 0.0 0.1
20:36 11.1 10.2 94 1023.0 9.8 NW 12.1 0.0 0.1
20:37 11.1 10.2 94 1022.8 8.3 NW 12.1 0.0 0.1
20:38 11.1 10.2 94 1022.8 12.1 W 12.1 0.0 0.1
20:40 11.1 10.2 94 1023.0 10.7 NW 12.1 0.0 0.1
20:41 11.1 10.2 94 1022.9 12.1 NW 12.1 0.0 0.1
20:42 11.1 10.2 94 1022.9 12.1 NW 12.1 0.0 0.1
20:43 11.1 10.2 94 1022.9 10.7 NW 12.1 0.0 0.1
20:44 11.0 10.1 94 1023.0 10.7 S 12.1 0.0 0.1
20:45 11.1 10.2 94 1022.9 10.7 NW 12.1 0.0 0.1
20:46 11.0 10.1 94 1023.0 8.3 NW 12.1 0.0 0.1
20:47 11.0 10.1 94 1022.9 9.2 NW 12.1 0.0 0.1
20:49 11.0 10.2 95 1022.9 12.1 N 12.1 0.0 0.1
20:50 11.0 10.2 95 1023.0 7.6 N 12.1 0.0 0.1
20:51 11.0 10.2 95 1023.1 12.1 N 12.1 0.0 0.1
20:52 11.0 10.2 95 1023.1 10.7 N 12.1 0.0 0.1
20:53 11.0 10.2 95 1022.9 10.7 NW 12.1 0.0 0.1
20:54 10.9 10.1 95 1023.1 9.8 NW 14.5 0.0 0.1
20:55 10.9 10.1 95 1023.1 11.4 NW 14.5 0.0 0.1
20:56 10.9 10.1 95 1023.1 6.0 N 14.5 0.0 0.1
20:57 10.9 10.1 95 1023.2 10.7 NW 14.5 0.0 0.1
20:58 10.9 10.1 95 1023.0 6.0 NW 14.5 0.0 0.1
20:59 10.9 10.1 95 1023.1 9.8 N 14.5 0.0 0.1
21:01 10.9 10.1 95 1023.1 9.8 N 14.5 0.0 0.1
21:02 10.9 10.1 95 1023.1 9.8 N 14.5 0.0 0.1
21:03 10.9 10.1 95 1023.1 9.8 N 14.5 0.0 0.1
21:04 10.9 10.1 95 1023.1 9.8 N 11.4 0.0 0.1
21:05 10.9 10.1 95 1023.1 7.6 NW 11.4 0.0 0.1
21:07 10.9 10.1 95 1023.0 4.5 NW 10.7 0.0 0.1
21:08 10.9 10.1 95 1023.1 11.4 NW 11.4 0.0 0.1
21:09 10.9 10.1 95 1023.1 11.4 NW 11.4 0.0 0.1
21:10 10.8 10.0 95 1023.2 9.2 NW 11.4 0.0 0.1
21:11 10.8 10.0 95 1023.2 10.7 NW 11.4 0.0 0.1
21:12 10.9 10.1 95 1023.2 10.7 N 11.4 0.0 0.1
21:13 10.8 10.0 95 1023.1 12.1 NW 12.1 0.0 0.1
21:14 10.8 10.0 95 1023.1 10.7 NW 12.1 0.0 0.1
21:15 10.8 10.0 95 1023.2 8.3 NW 12.1 0.0 0.1
21:16 10.8 10.0 95 1023.2 7.6 NW 12.1 0.0 0.1
21:17 10.8 10.0 95 1023.1 9.2 NW 12.1 0.0 0.1
21:18 10.8 10.0 95 1023.2 11.4 NW 12.1 0.0 0.1
21:19 10.8 10.2 96 1023.2 9.8 NW 12.1 0.0 0.1
21:21 10.8 10.2 96 1023.1 7.6 NW 12.1 0.0 0.1
21:22 10.8 10.2 96 1023.0 9.8 NW 12.1 0.0 0.1
21:23 10.8 10.2 96 1023.1 9.2 NW 12.1 0.0 0.1
21:24 10.8 10.2 96 1023.1 11.4 NW 11.4 0.0 0.1
21:25 10.8 10.2 96 1023.1 8.3 NW 11.4 0.0 0.1
21:26 10.7 10.1 96 1023.2 9.8 N 11.4 0.0 0.1
21:27 10.7 10.1 96 1023.1 12.1 NW 12.1 0.0 0.1
21:28 10.7 10.1 96 1023.2 10.7 W 15.9 0.0 0.1
21:29 10.7 10.1 96 1023.2 9.8 NW 15.9 0.0 0.1
21:30 10.7 10.1 96 1023.2 8.3 NW 15.9 0.0 0.1
21:31 10.7 10.1 96 1023.2 10.7 NW 15.9 0.0 0.1
21:32 10.7 10.1 96 1023.3 7.6 NW 15.9 0.0 0.1
21:33 10.7 10.1 96 1023.2 11.4 NW 15.9 0.0 0.1
21:34 10.7 10.1 96 1023.3 11.4 NW 15.9 0.0 0.1
21:36 10.7 10.1 96 1023.4 5.4 NW 15.9 0.0 0.1
21:37 10.7 10.1 96 1023.3 11.4 NW 15.9 0.0 0.1
21:38 10.7 10.1 96 1023.3 7.6 NW 11.4 0.0 0.1
21:39 10.7 10.1 96 1023.4 9.8 NW 11.4 0.0 0.1
21:40 10.7 10.1 96 1023.3 9.8 NW 11.4 0.0 0.1
21:41 10.7 10.1 96 1023.3 9.8 NW 11.4 0.0 0.1
21:42 10.7 10.1 96 1023.3 10.7 NW 12.1 0.0 0.1
21:43 10.7 10.1 96 1023.3 6.0 N 12.1 0.0 0.1
21:44 10.7 10.1 96 1023.3 13.0 NW 13.0 0.0 0.1
21:45 10.6 10.0 96 1023.2 9.2 NW 13.0 0.0 0.1
21:46 10.7 10.1 96 1023.2 10.7 NW 13.0 0.0 0.1
21:47 10.7 10.1 96 1023.4 8.3 N 13.0 0.0 0.1
21:49 10.7 10.1 96 1023.3 7.6 N 13.0 0.0 0.1
21:50 10.7 10.1 96 1023.2 10.7 NW 13.0 0.0 0.1
21:51 10.7 10.1 96 1023.3 6.9 NW 13.0 0.0 0.1
21:52 10.6 10.0 96 1023.3 13.0 NW 13.0 0.0 0.1
21:53 10.7 10.2 97 1023.3 13.0 N 13.0 0.0 0.1
21:55 10.7 10.2 97 1023.3 7.6 N 13.0 0.0 0.1
21:56 10.7 10.2 97 1023.4 8.3 NW 13.0 0.0 0.1
21:57 10.7 10.2 97 1023.3 11.4 NW 13.0 0.0 0.1
21:58 10.7 10.2 97 1023.2 6.9 NW 13.0 0.0 0.1
21:59 10.7 10.2 97 1023.4 9.8 NW 13.0 0.0 0.1
22:00 10.7 10.2 97 1023.3 9.8 NW 13.0 0.0 0.1
22:01 10.7 10.2 97 1023.4 7.6 NW 13.0 0.0 0.1
22:03 10.7 10.2 97 1023.3 11.4 W 13.0 0.0 0.1
22:04 10.7 10.2 97 1023.2 11.4 NW 12.1 0.0 0.1
22:05 10.7 10.2 97 1023.3 9.2 N 12.1 0.0 0.1
22:06 10.7 10.2 97 1023.3 11.4 NW 13.0 0.0 0.1
22:07 10.7 10.2 97 1023.4 11.4 NW 13.0 0.0 0.1
22:08 10.7 10.2 97 1023.4 9.2 NW 13.0 0.0 0.1
22:10 10.7 10.2 97 1023.4 8.3 W 13.0 0.0 0.1
22:11 10.7 10.2 97 1023.3 9.8 NW 13.0 0.0 0.1
22:12 10.7 10.2 97 1023.4 12.1 N 13.0 0.0 0.1
22:14 10.7 10.2 97 1023.4 10.7 W 13.0 0.0 0.1
22:15 10.7 10.2 97 1023.3 10.7 NW 12.1 0.0 0.1
22:17 10.7 10.2 97 1023.4 13.0 NW 13.0 0.0 0.1
22:18 10.7 10.2 97 1023.3 10.7 NW 13.0 0.0 0.1
22:20 10.8 10.3 97 1023.4 9.2 NW 13.0 0.0 0.1
22:21 10.8 10.3 97 1023.3 9.2 N 13.0 0.0 0.1
22:22 10.8 10.3 97 1023.3 6.9 NW 13.0 0.0 0.1
22:23 10.9 10.4 97 1023.4 7.6 NW 13.0 0.0 0.1
22:25 10.9 10.6 98 1023.3 9.2 NW 13.0 0.0 0.1
22:26 10.9 10.6 98 1023.3 11.4 N 13.0 0.0 0.1
22:27 10.9 10.4 97 1023.2 12.1 NW 13.0 0.0 0.1
22:28 11.0 10.7 98 1023.3 9.8 E 14.5 0.0 0.1
22:29 11.0 10.7 98 1023.3 8.3 N 14.5 0.0 0.1
22:31 11.0 10.7 98 1023.4 10.7 N 14.5 0.0 0.1
22:32 11.1 10.8 98 1023.4 10.7 NW 14.5 0.0 0.1
22:34 11.1 10.8 98 1023.4 9.2 NW 14.5 0.0 0.1
22:35 11.1 10.8 98 1023.5 7.6 NW 14.5 0.0 0.1
22:36 11.2 10.9 98 1023.5 9.2 NW 14.5 0.0 0.1
22:38 11.2 10.9 98 1023.3 9.8 NW 11.4 0.0 0.1
22:39 11.2 10.9 98 1023.3 8.3 NW 11.4 0.0 0.1
22:40 11.2 10.9 98 1023.4 12.1 NW 12.1 0.0 0.1
22:42 11.3 11.0 98 1023.3 5.4 NW 12.1 0.0 0.1
22:43 11.3 11.0 98 1023.4 6.0 N 12.1 0.0 0.1
22:44 11.3 11.0 98 1023.4 6.0 N 12.1 0.0 0.1
22:46 11.3 11.0 98 1023.3 9.8 W 12.1 0.0 0.1
22:47 11.3 11.0 98 1023.4 4.5 N 12.1 0.0 0.1
22:48 11.4 11.1 98 1023.4 9.8 N 12.1 0.0 0.1
22:49 11.4 11.1 98 1023.4 10.7 N 12.1 0.0 0.1
22:50 11.4 11.1 98 1023.4 6.9 NW 12.1 0.0 0.1
22:52 11.4 11.1 98 1023.3 8.3 NW 10.7 0.0 0.1
22:53 11.4 11.1 98 1023.4 9.2 N 10.7 0.0 0.1
22:55 11.4 11.1 98 1023.4 9.2 NW 10.7 0.0 0.1
22:56 11.4 11.1 98 1023.5 7.6 NW 10.7 0.0 0.1
22:58 11.4 11.3 99 1023.5 9.2 N 10.7 0.0 0.1
22:59 11.5 11.2 98 1023.4 10.7 N 10.7 0.0 0.1
23:00 11.5 11.4 99 1023.5 9.8 NW 10.7 0.0 0.1
23:01 11.5 11.4 99 1023.4 9.8 NW 10.7 0.0 0.1
23:02 11.5 11.4 99 1023.5 9.8 W 10.7 0.0 0.1
23:04 11.6 11.5 99 1023.4 10.7 NW 10.7 0.0 0.1
23:05 11.5 11.4 99 1023.3 6.0 N 10.7 0.0 0.1
23:06 11.6 11.5 99 1023.4 6.9 N 10.7 0.0 0.1
23:07 11.6 11.5 99 1023.3 8.3 N 10.7 0.0 0.1
23:09 11.6 11.5 99 1023.3 9.2 NW 10.7 0.0 0.1
23:10 11.6 11.5 99 1023.5 4.5 NW 10.7 0.0 0.1
23:11 11.6 11.5 99 1023.4 11.4 NW 11.4 0.0 0.1
23:12 11.6 11.5 99 1023.3 9.8 NW 11.4 0.0 0.1
23:13 11.6 11.5 99 1023.4 9.2 N 11.4 0.0 0.1
23:15 11.6 11.5 99 1023.5 9.8 NW 11.4 0.0 0.1
23:16 11.7 11.6 99 1023.3 5.4 NW 11.4 0.0 0.1
23:17 11.7 11.6 99 1023.3 6.9 N 11.4 0.0 0.1
23:18 11.7 11.6 99 1023.4 5.4 N 11.4 0.0 0.1
23:19 11.7 11.6 99 1023.4 6.9 NW 11.4 0.0 0.1
23:20 11.6 11.5 99 1023.5 8.3 NW 11.4 0.0 0.1
23:22 11.7 11.6 99 1023.3 7.6 NW 9.8 0.0 0.1
23:23 11.7 11.6 99 1023.3 9.8 N 9.8 0.0 0.1
23:24 11.7 11.6 99 1023.3 10.7 N 10.7 0.0 0.1
23:25 11.8 11.7 99 1023.3 9.8 N 10.7 0.0 0.1
23:26 11.8 11.7 99 1023.4 8.3 NW 10.7 0.0 0.1
23:27 11.8 11.7 99 1023.3 10.7 N 10.7 0.0 0.1
23:29 11.8 11.7 99 1023.3 8.3 NW 10.7 0.0 0.1
23:30 11.8 11.7 99 1023.4 5.4 N 10.7 0.0 0.1
23:31 11.8 11.7 99 1023.4 13.6 NW 13.6 0.0 0.1
23:32 11.8 11.7 99 1023.3 8.3 NE 13.6 0.0 0.1
23:33 11.8 11.7 99 1023.4 9.8 N 13.6 0.0 0.1
23:34 11.9 11.8 99 1023.4 9.2 N 13.6 0.0 0.1
23:36 11.9 11.8 99 1023.3 6.9 NW 13.6 0.0 0.1
23:37 11.9 11.8 99 1023.5 9.2 N 13.6 0.0 0.1
23:38 11.9 11.8 99 1023.5 8.3 W 13.6 0.0 0.1
23:39 11.9 11.8 99 1023.5 8.3 NE 13.6 0.0 0.1
23:40 11.9 11.8 99 1023.5 6.9 N 13.6 0.0 0.1
23:42 11.9 11.8 99 1023.4 8.3 NW 9.8 0.0 0.1
23:43 11.9 11.8 99 1023.4 7.6 NE 9.8 0.0 0.1
23:44 11.9 11.8 99 1023.4 9.8 NW 9.8 0.0 0.1
23:46 11.9 11.8 99 1023.4 9.8 WNW 9.8 0.0 0.1
23:47 12.0 11.9 99 1023.5 9.2 NW 9.8 0.0 0.1
23:50 12.0 11.9 99 1023.5 6.9 NW 9.8 0.0 0.1
23:53 11.9 11.8 99 1023.5 12.1 N 12.1 0.0 0.1
23:56 12.0 11.9 99 1023.5 9.2 N 12.1 0.0 0.1
23:59 12.0 11.9 99 1023.4 6.0 N 12.1 0.0 0.1

UK - WEATHER STATION TOPSITES - UK World Weather Websites

This is a private weather station, never base important decisions or events on data from this weather station. Although every effort has been made to make the data as accurate as possible it does not meet MetOffice standards. It is proved as a guide of local weather conditions. We accept no liability for any loss which may arise from use of the data.

Copyright © Carnkie Weather 2009 - 2018.